Time,TemperatureF,DewpointF,PressureIn,WindDirection,WindDirectionDegrees,WindSpeedMPH,WindSpeedGustMPH,Humidity,HourlyPrecipIn,Conditions,Clouds,dailyrainin,SoftwareType,DateUTC
2013-05-28 00:00:00,63.7,56.4,30.24,SSE,162,0.0,0.0,77,0.00,CLR,OVC,0.00,WeatherDisplay:10.37,2013-05-28 04:00:00,
2013-05-28 00:01:00,63.7,56.4,30.24,SSE,162,0.0,0.0,77,0.00,CLR,OVC,0.00,WeatherDisplay:10.37,2013-05-28 04:01:00,
2013-05-28 00:02:00,63.7,56.0,30.24,SSE,162,0.0,0.0,76,0.00,CLR,OVC,0.00,WeatherDisplay:10.37,2013-05-28 04:02:00,
2013-05-28 00:03:00,63.7,56.0,30.24,SSE,162,0.0,0.0,76,0.00,CLR,OVC,0.00,WeatherDisplay:10.37,2013-05-28 04:03:00,
2013-05-28 00:04:00,63.7,56.0,30.24,SSE,162,0.0,0.0,76,0.00,CLR,OVC,0.00,WeatherDisplay:10.37,2013-05-28 04:04:00,
2013-05-28 00:07:00,63.7,56.0,30.24,SSE,162,0.0,0.0,76,0.00,CLR,OVC,0.00,WeatherDisplay:10.37,2013-05-28 04:07:00,
2013-05-28 00:10:00,63.7,56.0,30.24,SSE,162,0.0,0.0,76,0.00,CLR,OVC,0.00,WeatherDisplay:10.37,2013-05-28 04:10:00,
2013-05-28 00:11:00,63.7,56.0,30.24,SSE,162,0.0,0.0,76,0.00,CLR,OVC,0.00,WeatherDisplay:10.37,2013-05-28 04:11:00,
2013-05-28 00:12:00,63.7,56.0,30.24,SSE,162,0.0,0.0,76,0.00,CLR,OVC,0.00,WeatherDisplay:10.37,2013-05-28 04:12:00,
2013-05-28 00:14:00,63.9,56.2,30.24,SSE,162,0.0,1.1,76,0.00,CLR,OVC,0.00,WeatherDisplay:10.37,2013-05-28 04:14:00,
2013-05-28 00:15:00,63.9,56.2,30.24,SSE,162,0.0,3.0,76,0.00,CLR,OVC,0.00,WeatherDisplay:10.37,2013-05-28 04:15:00,
2013-05-28 00:16:00,63.9,56.2,30.24,SSE,162,1.6,3.5,76,0.00,CLR,OVC,0.00,WeatherDisplay:10.37,2013-05-28 04:16:00,
2013-05-28 00:17:00,64.0,56.3,30.24,SSE,162,1.2,2.3,76,0.00,CLR,OVC,0.00,WeatherDisplay:10.37,2013-05-28 04:17:00,
2013-05-28 00:19:00,64.2,56.1,30.23,SSE,162,1.1,2.3,75,0.00,CLR,OVC,0.00,WeatherDisplay:10.37,2013-05-28 04:19:00,
2013-05-28 00:22:00,64.5,56.4,30.23,SSE,162,1.7,3.0,75,0.00,CLR,OVC,0.00,WeatherDisplay:10.37,2013-05-28 04:22:00,
2013-05-28 00:23:00,64.5,56.4,30.23,SSE,162,2.4,3.5,75,0.00,CLR,OVC,0.00,WeatherDisplay:10.37,2013-05-28 04:23:00,
2013-05-28 00:25:00,64.7,56.2,30.23,SSE,162,2.7,3.5,74,0.00,CLR,OVC,0.00,WeatherDisplay:10.37,2013-05-28 04:25:00,
2013-05-28 00:26:00,64.8,56.3,30.23,SSE,162,2.6,5.0,74,0.00,CLR,OVC,0.00,WeatherDisplay:10.37,2013-05-28 04:26:00,
2013-05-28 00:27:00,65.0,56.5,30.23,SSE,162,2.7,4.6,74,0.00,CLR,OVC,0.00,WeatherDisplay:10.37,2013-05-28 04:27:00,
2013-05-28 00:28:00,65.0,56.5,30.23,SSE,162,3.3,5.8,74,0.00,CLR,OVC,0.00,WeatherDisplay:10.37,2013-05-28 04:28:00,
2013-05-28 00:29:00,65.0,56.5,30.23,SSE,162,2.7,5.8,74,0.00,CLR,OVC,0.00,WeatherDisplay:10.37,2013-05-28 04:29:00,
2013-05-28 00:30:00,65.2,56.7,30.23,SSE,162,3.2,3.5,74,0.00,CLR,OVC,0.00,WeatherDisplay:10.37,2013-05-28 04:30:00,
2013-05-28 00:32:00,65.2,56.7,30.23,SSE,165,3.7,5.8,74,0.00,CLR,OVC,0.00,WeatherDisplay:10.37,2013-05-28 04:32:00,
2013-05-28 00:33:00,65.3,56.8,30.23,SSE,167,3.5,5.8,74,0.00,CLR,OVC,0.00,WeatherDisplay:10.37,2013-05-28 04:33:00,
2013-05-28 00:35:00,65.3,56.4,30.23,SSE,167,3.8,5.0,73,0.00,CLR,OVC,0.00,WeatherDisplay:10.37,2013-05-28 04:35:00,
2013-05-28 00:37:00,65.5,57.0,30.23,South,172,5.9,6.9,74,0.00,CLR,OVC,0.00,WeatherDisplay:10.37,2013-05-28 04:37:00,
2013-05-28 00:38:00,65.6,57.1,30.23,South,177,5.5,11.5,74,0.00,CLR,OVC,0.00,WeatherDisplay:10.37,2013-05-28 04:38:00,
2013-05-28 00:40:00,65.6,57.1,30.23,South,178,6.5,9.2,74,0.00,CLR,OVC,0.00,WeatherDisplay:10.37,2013-05-28 04:40:00,
2013-05-28 00:41:00,65.5,57.0,30.23,South,178,5.4,9.2,74,0.00,CLR,OVC,0.00,WeatherDisplay:10.37,2013-05-28 04:41:00,
2013-05-28 00:43:00,65.6,57.1,30.23,South,176,4.1,10.4,74,0.00,CLR,OVC,0.00,WeatherDisplay:10.37,2013-05-28 04:43:00,
2013-05-28 00:45:00,65.6,57.1,30.23,South,175,5.2,9.2,74,0.00,CLR,OVC,0.00,WeatherDisplay:10.37,2013-05-28 04:45:00,
2013-05-28 00:47:00,65.8,57.3,30.23,South,183,7.4,11.5,74,0.00,CLR,OVC,0.00,WeatherDisplay:10.37,2013-05-28 04:47:00,
2013-05-28 00:48:00,65.8,57.3,30.23,South,183,7.1,11.5,74,0.00,CLR,OVC,0.00,WeatherDisplay:10.37,2013-05-28 04:48:00,
2013-05-28 00:49:00,65.8,57.3,30.23,South,184,4.7,6.9,74,0.00,CLR,OVC,0.00,WeatherDisplay:10.37,2013-05-28 04:49:00,
2013-05-28 00:51:00,65.8,57.3,30.23,South,186,5.5,6.9,74,0.00,CLR,OVC,0.00,WeatherDisplay:10.37,2013-05-28 04:51:00,
2013-05-28 00:54:00,65.6,57.5,30.23,South,186,6.0,9.2,75,0.00,CLR,OVC,0.00,WeatherDisplay:10.37,2013-05-28 04:54:00,
2013-05-28 00:56:00,65.6,57.8,30.23,South,185,5.3,5.8,76,0.00,CLR,OVC,0.00,WeatherDisplay:10.37,2013-05-28 04:56:00,
2013-05-28 00:57:00,65.6,57.8,30.23,South,184,5.9,7.0,76,0.00,CLR,OVC,0.00,WeatherDisplay:10.37,2013-05-28 04:57:00,
2013-05-28 00:59:00,65.8,58.0,30.23,South,184,8.3,11.5,76,0.00,CLR,OVC,0.00,WeatherDisplay:10.37,2013-05-28 04:59:00,
2013-05-28 01:01:00,65.8,58.4,30.23,South,177,5.7,9.2,77,0.00,CLR,OVC,0.00,WeatherDisplay:10.37,2013-05-28 05:01:00,
2013-05-28 01:03:00,66.0,58.6,30.23,South,178,6.3,10.4,77,0.00,CLR,OVC,0.00,WeatherDisplay:10.37,2013-05-28 05:03:00,
2013-05-28 01:05:00,66.0,58.6,30.22,South,182,8.4,11.5,77,0.00,CLR,OVC,0.00,WeatherDisplay:10.37,2013-05-28 05:05:00,
2013-05-28 01:06:00,66.0,58.6,30.22,SSE,167,8.7,11.5,77,0.00,CLR,OVC,0.00,WeatherDisplay:10.37,2013-05-28 05:06:00,
2013-05-28 01:11:00,66.0,59.3,30.22,South,180,9.3,12.7,79,0.00,CLR,OVC,0.00,WeatherDisplay:10.37,2013-05-28 05:11:00,
2013-05-28 01:12:00,66.1,59.0,30.22,South,174,8.1,11.5,78,0.00,CLR,OVC,0.00,WeatherDisplay:10.37,2013-05-28 05:12:00,
2013-05-28 01:14:00,66.0,59.3,30.22,South,183,8.5,11.5,79,0.00,CLR,OVC,0.00,WeatherDisplay:10.37,2013-05-28 05:14:00,
2013-05-28 01:19:00,66.0,59.3,30.22,South,179,7.7,12.7,79,0.00,CLR,OVC,0.00,WeatherDisplay:10.37,2013-05-28 05:19:00,
2013-05-28 01:21:00,66.0,59.7,30.22,South,186,10.3,12.0,80,0.00,CLR,OVC,0.00,WeatherDisplay:10.37,2013-05-28 05:21:00,
2013-05-28 01:22:00,66.0,59.7,30.22,South,188,7.9,15.0,80,0.00,CLR,OVC,0.00,WeatherDisplay:10.37,2013-05-28 05:22:00,
2013-05-28 01:23:00,65.8,59.5,30.22,South,169,7.9,11.5,80,0.00,CLR,OVC,0.00,WeatherDisplay:10.37,2013-05-28 05:23:00,
2013-05-28 01:24:00,65.8,59.5,30.22,South,184,8.5,12.0,80,0.00,CLR,OVC,0.00,WeatherDisplay:10.37,2013-05-28 05:24:00,
2013-05-28 01:26:00,65.8,59.8,30.22,South,188,7.4,11.5,81,0.00,CLR,OVC,0.00,WeatherDisplay:10.37,2013-05-28 05:26:00,
2013-05-28 01:28:00,65.8,59.8,30.22,South,182,9.8,16.1,81,0.00,CLR,OVC,0.00,WeatherDisplay:10.37,2013-05-28 05:28:00,
2013-05-28 01:30:00,65.8,59.8,30.22,South,186,6.9,10.4,81,0.00,CLR,OVC,0.00,WeatherDisplay:10.37,2013-05-28 05:30:00,
2013-05-28 01:32:00,65.6,60.0,30.22,South,184,8.2,11.0,82,0.00,CLR,OVC,0.00,WeatherDisplay:10.37,2013-05-28 05:32:00,
2013-05-28 01:33:00,65.6,60.0,30.22,South,184,9.4,14.0,82,0.00,CLR,OVC,0.00,WeatherDisplay:10.37,2013-05-28 05:33:00,
2013-05-28 01:36:00,65.6,60.0,30.22,South,182,7.2,11.5,82,0.00,CLR,OVC,0.00,WeatherDisplay:10.37,2013-05-28 05:36:00,
2013-05-28 01:38:00,65.5,59.9,30.22,South,182,5.1,9.2,82,0.00,CLR,OVC,0.00,WeatherDisplay:10.37,2013-05-28 05:38:00,
2013-05-28 01:40:00,65.5,60.2,30.22,South,179,9.9,11.5,83,0.00,CLR,OVC,0.00,WeatherDisplay:10.37,2013-05-28 05:40:00,
2013-05-28 01:41:00,65.5,60.2,30.22,South,182,8.4,12.7,83,0.00,CLR,OVC,0.00,WeatherDisplay:10.37,2013-05-28 05:41:00,
2013-05-28 01:44:00,65.5,60.2,30.22,South,184,10.3,13.8,83,0.00,CLR,OVC,0.00,WeatherDisplay:10.37,2013-05-28 05:44:00,
2013-05-28 01:45:00,65.5,60.2,30.22,SSW,194,10.9,12.7,83,0.00,CLR,OVC,0.00,WeatherDisplay:10.37,2013-05-28 05:45:00,
2013-05-28 01:50:00,65.3,60.3,30.22,South,188,7.2,12.0,84,0.00,CLR,OVC,0.00,WeatherDisplay:10.37,2013-05-28 05:50:00,
2013-05-28 01:51:00,65.2,60.2,30.22,South,186,7.4,11.5,84,0.00,CLR,OVC,0.00,WeatherDisplay:10.37,2013-05-28 05:51:00,
2013-05-28 01:52:00,65.2,60.2,30.22,South,187,7.2,11.5,84,0.00,CLR,OVC,0.00,WeatherDisplay:10.37,2013-05-28 05:52:00,
2013-05-28 01:55:00,65.0,60.0,30.22,SSW,192,7.9,11.5,84,0.00,CLR,OVC,0.00,WeatherDisplay:10.37,2013-05-28 05:55:00,
2013-05-28 01:56:00,65.0,60.4,30.22,South,173,9.2,11.5,85,0.00,CLR,OVC,0.00,WeatherDisplay:10.37,2013-05-28 05:56:00,
2013-05-28 01:57:00,65.0,60.4,30.22,South,178,8.9,11.5,85,0.00,CLR,OVC,0.00,WeatherDisplay:10.37,2013-05-28 05:57:00,
2013-05-28 01:58:00,65.0,60.4,30.22,South,188,7.0,11.5,85,0.00,CLR,OVC,0.00,WeatherDisplay:10.37,2013-05-28 05:58:00,
2013-05-28 01:59:00,65.0,60.4,30.22,South,190,7.6,7.6,85,0.00,CLR,OVC,0.00,WeatherDisplay:10.37,2013-05-28 05:59:00,
2013-05-28 02:01:00,64.8,60.2,30.22,South,173,9.1,12.7,85,0.00,CLR,OVC,0.00,WeatherDisplay:10.37,2013-05-28 06:01:00,
2013-05-28 02:03:00,64.8,60.5,30.22,South,178,10.5,13.8,86,0.00,CLR,OVC,0.00,WeatherDisplay:10.37,2013-05-28 06:03:00,
2013-05-28 02:04:00,65.0,60.7,30.21,South,187,9.4,13.8,86,0.00,CLR,OVC,0.00,WeatherDisplay:10.37,2013-05-28 06:04:00,
2013-05-28 02:06:00,65.0,60.7,30.21,South,184,9.9,15.0,86,0.00,CLR,OVC,0.00,WeatherDisplay:10.37,2013-05-28 06:06:00,
2013-05-28 02:07:00,64.8,60.5,30.21,South,182,7.0,11.5,86,0.00,CLR,OVC,0.00,WeatherDisplay:10.37,2013-05-28 06:07:00,
2013-05-28 02:08:00,64.8,60.5,30.21,South,184,8.1,11.5,86,0.00,CLR,OVC,0.00,WeatherDisplay:10.37,2013-05-28 06:08:00,
2013-05-28 02:09:00,64.8,60.5,30.21,South,179,8.3,13.0,86,0.00,CLR,OVC,0.00,WeatherDisplay:10.37,2013-05-28 06:09:00,
2013-05-28 02:10:00,64.8,60.5,30.21,South,182,10.1,12.7,86,0.00,CLR,OVC,0.00,WeatherDisplay:10.37,2013-05-28 06:10:00,
2013-05-28 02:12:00,64.8,60.5,30.21,South,173,9.5,13.8,86,0.00,CLR,OVC,0.00,WeatherDisplay:10.37,2013-05-28 06:12:00,
2013-05-28 02:15:00,64.8,60.8,30.21,South,182,10.4,15.0,87,0.00,CLR,OVC,0.00,WeatherDisplay:10.37,2013-05-28 06:15:00,
2013-05-28 02:16:00,64.7,60.7,30.21,South,169,8.1,11.5,87,0.00,CLR,OVC,0.00,WeatherDisplay:10.37,2013-05-28 06:16:00,
2013-05-28 02:17:00,64.7,60.7,30.21,SSW,196,10.3,14.0,87,0.00,CLR,OVC,0.00,WeatherDisplay:10.37,2013-05-28 06:17:00,
2013-05-28 02:18:00,64.7,60.7,30.21,SSW,192,11.0,13.8,87,0.00,CLR,OVC,0.00,WeatherDisplay:10.37,2013-05-28 06:18:00,
2013-05-28 02:20:00,64.7,60.7,30.21,South,184,11.1,13.8,87,0.00,CLR,OVC,0.00,WeatherDisplay:10.37,2013-05-28 06:20:00,
2013-05-28 02:22:00,64.7,60.7,30.21,South,188,9.6,11.5,87,0.00,CLR,OVC,0.00,WeatherDisplay:10.37,2013-05-28 06:22:00,
2013-05-28 02:23:00,64.7,60.7,30.21,SSW,198,9.6,12.7,87,0.00,CLR,OVC,0.00,WeatherDisplay:10.37,2013-05-28 06:23:00,
2013-05-28 02:24:00,64.7,60.7,30.21,South,182,10.2,12.0,87,0.00,CLR,OVC,0.00,WeatherDisplay:10.37,2013-05-28 06:24:00,
2013-05-28 02:26:00,64.7,61.1,30.21,South,178,9.1,13.8,88,0.00,CLR,OVC,0.00,WeatherDisplay:10.37,2013-05-28 06:26:00,
2013-05-28 02:27:00,64.7,61.1,30.21,SSW,192,8.0,11.5,88,0.00,CLR,OVC,0.00,WeatherDisplay:10.37,2013-05-28 06:27:00,
2013-05-28 02:29:00,64.7,61.1,30.21,South,187,7.1,11.5,88,0.00,CLR,OVC,0.00,WeatherDisplay:10.37,2013-05-28 06:29:00,
2013-05-28 02:30:00,64.7,61.1,30.21,South,173,8.4,12.7,88,0.00,CLR,OVC,0.00,WeatherDisplay:10.37,2013-05-28 06:30:00,
2013-05-28 02:31:00,64.7,61.1,30.21,South,175,6.7,11.5,88,0.00,CLR,OVC,0.00,WeatherDisplay:10.37,2013-05-28 06:31:00,
2013-05-28 02:34:00,64.7,61.1,30.21,SSW,200,9.5,12.0,88,0.00,CLR,OVC,0.00,WeatherDisplay:10.37,2013-05-28 06:34:00,
2013-05-28 02:36:00,64.5,60.9,30.21,South,185,7.2,10.4,88,0.00,CLR,OVC,0.00,WeatherDisplay:10.37,2013-05-28 06:36:00,
2013-05-28 02:37:00,64.5,60.9,30.21,South,182,7.4,11.5,88,0.00,CLR,OVC,0.00,WeatherDisplay:10.37,2013-05-28 06:37:00,
2013-05-28 02:38:00,64.5,60.9,30.21,South,172,9.2,11.5,88,0.00,CLR,OVC,0.00,WeatherDisplay:10.37,2013-05-28 06:38:00,
2013-05-28 02:39:00,64.5,60.9,30.21,South,169,9.0,11.5,88,0.00,CLR,OVC,0.00,WeatherDisplay:10.37,2013-05-28 06:39:00,
2013-05-28 02:41:00,64.5,60.9,30.21,South,182,9.0,12.7,88,0.00,CLR,OVC,0.00,WeatherDisplay:10.37,2013-05-28 06:41:00,
2013-05-28 02:42:00,64.5,60.9,30.21,South,191,9.9,12.7,88,0.00,CLR,OVC,0.00,WeatherDisplay:10.37,2013-05-28 06:42:00,
2013-05-28 02:45:00,64.5,60.9,30.21,South,183,9.6,13.8,88,0.00,CLR,OVC,0.00,WeatherDisplay:10.37,2013-05-28 06:45:00,
2013-05-28 02:47:00,64.5,61.2,30.21,SSW,198,12.8,17.3,89,0.00,CLR,OVC,0.00,WeatherDisplay:10.37,2013-05-28 06:47:00,
2013-05-28 02:48:00,64.5,61.2,30.21,South,178,8.9,13.8,89,0.00,CLR,OVC,0.00,WeatherDisplay:10.37,2013-05-28 06:48:00,
2013-05-28 02:50:00,64.5,61.2,30.21,SSW,207,11.8,13.8,89,0.00,CLR,OVC,0.00,WeatherDisplay:10.37,2013-05-28 06:50:00,
2013-05-28 02:52:00,64.5,61.2,30.21,SSW,192,11.0,13.0,89,0.00,CLR,OVC,0.00,WeatherDisplay:10.37,2013-05-28 06:52:00,
2013-05-28 02:53:00,64.3,61.0,30.21,SSW,198,10.7,13.0,89,0.00,CLR,OVC,0.00,WeatherDisplay:10.37,2013-05-28 06:53:00,
2013-05-28 02:54:00,64.3,61.0,30.20,South,186,9.2,13.8,89,0.00,CLR,OVC,0.00,WeatherDisplay:10.37,2013-05-28 06:54:00,
2013-05-28 02:56:00,64.3,61.0,30.20,South,180,9.6,12.7,89,0.00,CLR,OVC,0.00,WeatherDisplay:10.37,2013-05-28 06:56:00,
2013-05-28 02:58:00,64.3,61.3,30.20,SSW,197,9.3,12.7,90,0.00,CLR,OVC,0.00,WeatherDisplay:10.37,2013-05-28 06:58:00,
2013-05-28 02:59:00,64.3,61.3,30.20,South,183,8.9,11.5,90,0.00,CLR,OVC,0.00,WeatherDisplay:10.37,2013-05-28 06:59:00,
2013-05-28 03:00:00,64.3,61.3,30.20,South,188,9.9,13.8,90,0.00,CLR,OVC,0.00,WeatherDisplay:10.37,2013-05-28 07:00:00,
2013-05-28 03:02:00,64.3,61.3,30.20,SSW,196,7.2,10.4,90,0.00,CLR,OVC,0.00,WeatherDisplay:10.37,2013-05-28 07:02:00,
2013-05-28 03:03:00,64.3,61.3,30.20,SSW,195,4.8,11.5,90,0.00,CLR,OVC,0.00,WeatherDisplay:10.37,2013-05-28 07:03:00,
2013-05-28 03:04:00,64.3,61.3,30.21,SSW,195,7.4,9.2,90,0.00,CLR,OVC,0.00,WeatherDisplay:10.37,2013-05-28 07:04:00,
2013-05-28 03:07:00,64.3,61.3,30.21,South,171,6.6,10.4,90,0.00,CLR,OVC,0.00,WeatherDisplay:10.37,2013-05-28 07:07:00,
2013-05-28 03:08:00,64.3,61.3,30.21,South,184,5.1,7.0,90,0.00,CLR,OVC,0.00,WeatherDisplay:10.37,2013-05-28 07:08:00,
2013-05-28 03:09:00,64.3,61.3,30.21,South,185,6.7,11.0,90,0.00,CLR,OVC,0.00,WeatherDisplay:10.37,2013-05-28 07:09:00,
2013-05-28 03:12:00,64.3,61.3,30.21,SSW,207,4.2,9.2,90,0.00,CLR,OVC,0.00,WeatherDisplay:10.37,2013-05-28 07:12:00,
2013-05-28 03:13:00,64.2,61.2,30.21,SSW,197,7.3,10.4,90,0.00,CLR,OVC,0.00,WeatherDisplay:10.37,2013-05-28 07:13:00,
2013-05-28 03:14:00,64.2,61.2,30.21,SSW,196,5.4,11.5,90,0.00,CLR,OVC,0.00,WeatherDisplay:10.37,2013-05-28 07:14:00,
2013-05-28 03:15:00,64.2,61.2,30.21,South,190,7.9,11.5,90,0.00,CLR,OVC,0.00,WeatherDisplay:10.37,2013-05-28 07:15:00,
2013-05-28 03:17:00,64.2,61.2,30.21,SSW,193,6.3,11.5,90,0.00,CLR,OVC,0.00,WeatherDisplay:10.37,2013-05-28 07:17:00,
2013-05-28 03:20:00,64.2,61.2,30.21,SSW,201,8.2,12.7,90,0.00,CLR,OVC,0.00,WeatherDisplay:10.37,2013-05-28 07:20:00,
2013-05-28 03:22:00,64.2,61.2,30.21,South,191,9.6,12.0,90,0.00,CLR,OVC,0.00,WeatherDisplay:10.37,2013-05-28 07:22:00,
2013-05-28 03:23:00,64.2,61.2,30.21,SSW,196,6.5,12.7,90,0.00,CLR,OVC,0.00,WeatherDisplay:10.37,2013-05-28 07:23:00,
2013-05-28 03:25:00,64.2,61.2,30.21,SSW,196,8.6,11.5,90,0.00,CLR,OVC,0.00,WeatherDisplay:10.37,2013-05-28 07:25:00,
2013-05-28 03:26:00,64.3,61.3,30.21,SSW,196,5.8,11.5,90,0.00,CLR,OVC,0.00,WeatherDisplay:10.37,2013-05-28 07:26:00,
2013-05-28 03:30:00,64.2,61.2,30.21,SSW,200,3.3,4.6,90,0.00,CLR,OVC,0.00,WeatherDisplay:10.37,2013-05-28 07:30:00,
2013-05-28 03:32:00,64.2,61.2,30.21,South,181,6.2,8.1,90,0.00,CLR,OVC,0.00,WeatherDisplay:10.37,2013-05-28 07:32:00,
2013-05-28 03:33:00,64.3,61.3,30.21,SSW,213,5.3,6.9,90,0.00,CLR,OVC,0.00,WeatherDisplay:10.37,2013-05-28 07:33:00,
2013-05-28 03:35:00,64.2,61.2,30.21,South,182,5.1,10.4,90,0.00,CLR,OVC,0.00,WeatherDisplay:10.37,2013-05-28 07:35:00,
2013-05-28 03:36:00,64.2,61.2,30.21,South,182,5.9,8.1,90,0.00,CLR,OVC,0.00,WeatherDisplay:10.37,2013-05-28 07:36:00,
2013-05-28 03:37:00,64.2,61.2,30.21,South,182,6.1,6.9,90,0.00,CLR,OVC,0.00,WeatherDisplay:10.37,2013-05-28 07:37:00,
2013-05-28 03:38:00,64.3,61.3,30.21,South,184,5.2,5.8,90,0.00,CLR,OVC,0.00,WeatherDisplay:10.37,2013-05-28 07:38:00,
2013-05-28 03:39:00,64.2,61.2,30.21,South,184,4.0,5.8,90,0.00,CLR,OVC,0.00,WeatherDisplay:10.37,2013-05-28 07:39:00,
2013-05-28 03:42:00,64.2,61.2,30.21,South,191,4.3,5.8,90,0.00,CLR,OVC,0.00,WeatherDisplay:10.37,2013-05-28 07:42:00,
2013-05-28 03:43:00,64.2,61.2,30.21,South,191,3.4,4.6,90,0.00,CLR,OVC,0.00,WeatherDisplay:10.37,2013-05-28 07:43:00,
2013-05-28 03:46:00,64.2,61.2,30.21,SSW,200,5.6,6.9,90,0.00,CLR,OVC,0.00,WeatherDisplay:10.37,2013-05-28 07:46:00,
2013-05-28 03:47:00,64.2,61.2,30.21,SSW,200,6.3,9.2,90,0.00,CLR,OVC,0.00,WeatherDisplay:10.37,2013-05-28 07:47:00,
2013-05-28 03:50:00,64.2,61.2,30.21,SSW,203,7.6,10.4,90,0.00,CLR,OVC,0.00,WeatherDisplay:10.37,2013-05-28 07:50:00,
2013-05-28 03:51:00,64.2,61.2,30.20,SSW,199,4.1,4.6,90,0.00,CLR,OVC,0.00,WeatherDisplay:10.37,2013-05-28 07:51:00,
2013-05-28 03:52:00,64.2,61.2,30.20,South,191,3.5,4.6,90,0.00,CLR,OVC,0.00,WeatherDisplay:10.37,2013-05-28 07:52:00,
2013-05-28 03:54:00,64.2,61.2,30.20,South,191,3.6,6.9,90,0.00,CLR,OVC,0.00,WeatherDisplay:10.37,2013-05-28 07:54:00,
2013-05-28 03:56:00,64.2,61.2,30.20,SSW,193,3.7,5.8,90,0.00,CLR,OVC,0.00,WeatherDisplay:10.37,2013-05-28 07:56:00,
2013-05-28 03:59:00,64.2,61.2,30.20,SSW,201,3.7,7.0,90,0.00,CLR,OVC,0.00,WeatherDisplay:10.37,2013-05-28 07:59:00,
2013-05-28 04:00:00,64.2,61.2,30.20,SSW,201,3.8,6.9,90,0.00,CLR,OVC,0.00,WeatherDisplay:10.37,2013-05-28 08:00:00,
2013-05-28 04:01:00,64.2,61.2,30.20,SSW,201,3.9,4.6,90,0.00,CLR,OVC,0.00,WeatherDisplay:10.37,2013-05-28 08:01:00,
2013-05-28 04:04:00,64.0,61.0,30.20,SSW,201,3.7,4.6,90,0.00,CLR,OVC,0.00,WeatherDisplay:10.37,2013-05-28 08:04:00,
2013-05-28 04:05:00,64.0,61.0,30.20,SSW,201,4.0,6.0,90,0.00,CLR,OVC,0.00,WeatherDisplay:10.37,2013-05-28 08:05:00,
2013-05-28 04:06:00,64.0,61.0,30.20,SSW,201,5.6,8.0,90,0.00,CLR,OVC,0.00,WeatherDisplay:10.37,2013-05-28 08:06:00,
2013-05-28 04:08:00,64.0,61.0,30.20,SSW,202,5.1,9.2,90,0.00,CLR,OVC,0.00,WeatherDisplay:10.37,2013-05-28 08:08:00,
2013-05-28 04:11:00,64.0,61.0,30.20,SSW,202,3.1,4.6,90,0.00,CLR,OVC,0.00,WeatherDisplay:10.37,2013-05-28 08:11:00,
2013-05-28 04:12:00,64.0,61.0,30.20,SSW,202,4.0,5.0,90,0.00,CLR,OVC,0.00,WeatherDisplay:10.37,2013-05-28 08:12:00,
2013-05-28 04:14:00,64.0,61.0,30.20,SSW,202,4.6,6.9,90,0.00,CLR,OVC,0.00,WeatherDisplay:10.37,2013-05-28 08:14:00,
2013-05-28 04:15:00,64.0,61.0,30.20,South,190,6.5,7.0,90,0.00,CLR,OVC,0.00,WeatherDisplay:10.37,2013-05-28 08:15:00,
2013-05-28 04:18:00,64.0,61.0,30.20,South,190,3.9,8.1,90,0.00,CLR,OVC,0.00,WeatherDisplay:10.37,2013-05-28 08:18:00,
2013-05-28 04:19:00,63.9,60.9,30.20,South,190,4.4,5.8,90,0.00,CLR,OVC,0.00,WeatherDisplay:10.37,2013-05-28 08:19:00,
2013-05-28 04:22:00,63.9,60.9,30.20,South,190,6.2,8.1,90,0.00,CLR,OVC,0.00,WeatherDisplay:10.37,2013-05-28 08:22:00,
2013-05-28 04:24:00,63.9,60.9,30.20,South,190,5.8,9.2,90,0.00,CLR,OVC,0.00,WeatherDisplay:10.37,2013-05-28 08:24:00,
2013-05-28 04:25:00,63.9,60.9,30.20,SSW,196,7.8,11.5,90,0.00,CLR,OVC,0.00,WeatherDisplay:10.37,2013-05-28 08:25:00,
2013-05-28 04:26:00,63.9,60.9,30.20,SSW,196,4.8,11.5,90,0.00,CLR,OVC,0.00,WeatherDisplay:10.37,2013-05-28 08:26:00,
2013-05-28 04:27:00,63.7,60.7,30.20,SSW,196,4.5,6.0,90,0.00,CLR,OVC,0.00,WeatherDisplay:10.37,2013-05-28 08:27:00,
2013-05-28 04:30:00,63.9,61.2,30.20,SSW,198,5.0,9.2,91,0.00,CLR,OVC,0.00,WeatherDisplay:10.37,2013-05-28 08:30:00,
2013-05-28 04:32:00,63.9,60.9,30.20,SSW,200,5.8,8.0,90,0.00,CLR,OVC,0.00,WeatherDisplay:10.37,2013-05-28 08:32:00,
2013-05-28 04:33:00,63.9,60.9,30.20,SSW,205,7.0,8.1,90,0.00,CLR,OVC,0.00,WeatherDisplay:10.37,2013-05-28 08:33:00,
2013-05-28 04:37:00,63.7,60.7,30.21,SSW,202,7.2,9.2,90,0.00,CLR,OVC,0.00,WeatherDisplay:10.37,2013-05-28 08:37:00,
2013-05-28 04:39:00,63.7,60.7,30.21,SSW,200,8.3,10.4,90,0.00,CLR,OVC,0.00,WeatherDisplay:10.37,2013-05-28 08:39:00,
2013-05-28 04:40:00,63.7,60.7,30.21,SSW,198,9.2,11.0,90,0.00,CLR,OVC,0.00,WeatherDisplay:10.37,2013-05-28 08:40:00,
2013-05-28 04:41:00,63.7,60.7,30.21,SSW,197,8.1,11.5,90,0.00,CLR,OVC,0.00,WeatherDisplay:10.37,2013-05-28 08:41:00,
2013-05-28 04:44:00,63.7,60.7,30.21,SSW,203,7.0,10.4,90,0.00,CLR,OVC,0.00,WeatherDisplay:10.37,2013-05-28 08:44:00,
2013-05-28 04:45:00,63.7,60.7,30.21,SSW,203,6.0,8.1,90,0.00,CLR,OVC,0.00,WeatherDisplay:10.37,2013-05-28 08:45:00,
2013-05-28 04:47:00,63.7,60.7,30.21,SSW,199,8.7,10.0,90,0.00,CLR,OVC,0.00,WeatherDisplay:10.37,2013-05-28 08:47:00,
2013-05-28 04:49:00,63.7,60.7,30.21,SSW,193,8.4,11.5,90,0.00,CLR,OVC,0.00,WeatherDisplay:10.37,2013-05-28 08:49:00,
2013-05-28 04:50:00,63.7,60.7,30.21,SSW,198,8.7,13.8,90,0.00,CLR,OVC,0.00,WeatherDisplay:10.37,2013-05-28 08:50:00,
2013-05-28 04:51:00,63.9,60.9,30.21,SSW,198,7.1,11.5,90,0.00,CLR,OVC,0.00,WeatherDisplay:10.37,2013-05-28 08:51:00,
2013-05-28 04:52:00,63.9,60.9,30.21,SSW,203,9.4,14.0,90,0.00,CLR,OVC,0.00,WeatherDisplay:10.37,2013-05-28 08:52:00,
2013-05-28 04:54:00,63.9,60.6,30.20,SSW,207,5.9,8.1,89,0.00,CLR,OVC,0.00,WeatherDisplay:10.37,2013-05-28 08:54:00,
2013-05-28 04:57:00,63.9,60.6,30.20,SSW,207,7.0,12.0,89,0.00,CLR,OVC,0.00,WeatherDisplay:10.37,2013-05-28 08:57:00,
2013-05-28 05:00:00,64.0,60.7,30.20,SSW,207,8.8,12.7,89,0.00,CLR,OVC,0.00,WeatherDisplay:10.37,2013-05-28 09:00:00,
2013-05-28 05:01:00,64.2,60.6,30.20,SSW,207,6.2,6.9,88,0.00,CLR,OVC,0.00,WeatherDisplay:10.37,2013-05-28 09:01:00,
2013-05-28 05:02:00,64.2,60.6,30.20,SSW,204,7.7,11.0,88,0.00,CLR,OVC,0.00,WeatherDisplay:10.37,2013-05-28 09:02:00,
2013-05-28 05:04:00,64.2,60.6,30.20,SSW,208,8.4,12.7,88,0.00,CLR,OVC,0.00,WeatherDisplay:10.37,2013-05-28 09:04:00,
2013-05-28 05:06:00,64.3,61.3,30.21,SSW,213,6.7,11.5,90,0.00,CLR,OVC,0.00,WeatherDisplay:10.37,2013-05-28 09:06:00,
2013-05-28 05:07:00,64.3,60.7,30.21,SW,217,5.6,9.2,88,0.00,CLR,OVC,0.00,WeatherDisplay:10.37,2013-05-28 09:07:00,
2013-05-28 05:08:00,64.3,60.7,30.21,SW,217,6.3,7.0,88,0.00,CLR,OVC,0.00,WeatherDisplay:10.37,2013-05-28 09:08:00,
2013-05-28 05:09:00,64.2,60.6,30.21,SSW,212,6.8,10.0,88,0.00,CLR,OVC,0.00,WeatherDisplay:10.37,2013-05-28 09:09:00,
2013-05-28 05:11:00,64.3,60.7,30.21,SW,223,8.4,10.4,88,0.00,CLR,OVC,0.00,WeatherDisplay:10.37,2013-05-28 09:11:00,
2013-05-28 05:12:00,64.3,60.3,30.21,SW,223,8.7,11.5,87,0.00,CLR,OVC,0.00,WeatherDisplay:10.37,2013-05-28 09:12:00,
2013-05-28 05:14:00,64.3,60.7,30.20,SW,217,7.9,11.5,88,0.00,CLR,OVC,0.00,WeatherDisplay:10.37,2013-05-28 09:14:00,
2013-05-28 05:15:00,64.3,60.3,30.20,SSW,211,7.8,10.4,87,0.00,CLR,OVC,0.00,WeatherDisplay:10.37,2013-05-28 09:15:00,
2013-05-28 05:17:00,64.3,60.3,30.20,SSW,209,6.6,8.1,87,0.00,CLR,OVC,0.00,WeatherDisplay:10.37,2013-05-28 09:17:00,
2013-05-28 05:19:00,64.3,60.3,30.20,SSW,206,11.4,12.7,87,0.00,CLR,OVC,0.00,WeatherDisplay:10.37,2013-05-28 09:19:00,
2013-05-28 05:20:00,64.3,60.3,30.20,SSW,209,8.2,11.5,87,0.00,CLR,OVC,0.00,WeatherDisplay:10.37,2013-05-28 09:20:00,
2013-05-28 05:21:00,64.3,60.3,30.20,SW,217,8.4,10.4,87,0.00,CLR,OVC,0.00,WeatherDisplay:10.37,2013-05-28 09:21:00,
2013-05-28 05:24:00,64.3,60.3,30.21,SSW,207,7.9,11.5,87,0.00,CLR,OVC,0.00,WeatherDisplay:10.37,2013-05-28 09:24:00,
2013-05-28 05:25:00,64.3,60.3,30.21,SSW,198,8.9,12.7,87,0.00,CLR,OVC,0.00,WeatherDisplay:10.37,2013-05-28 09:25:00,
2013-05-28 05:26:00,64.3,60.3,30.21,SSW,205,10.2,11.5,87,0.00,CLR,OVC,0.00,WeatherDisplay:10.37,2013-05-28 09:26:00,
2013-05-28 05:27:00,64.3,60.3,30.21,SW,214,6.8,10.4,87,0.00,CLR,OVC,0.00,WeatherDisplay:10.37,2013-05-28 09:27:00,
2013-05-28 05:29:00,64.3,60.3,30.21,SSW,212,8.3,11.0,87,0.00,CLR,OVC,0.00,WeatherDisplay:10.37,2013-05-28 09:29:00,
2013-05-28 05:30:00,64.3,60.3,30.21,SSW,208,10.1,11.5,87,0.00,CLR,OVC,0.00,WeatherDisplay:10.37,2013-05-28 09:30:00,
2013-05-28 05:32:00,64.3,60.3,30.21,SW,217,8.5,12.7,87,0.00,CLR,OVC,0.00,WeatherDisplay:10.37,2013-05-28 09:32:00,
2013-05-28 05:33:00,64.3,60.3,30.21,SSW,209,8.2,11.0,87,0.00,CLR,OVC,0.00,WeatherDisplay:10.37,2013-05-28 09:33:00,
2013-05-28 05:35:00,64.3,60.3,30.21,SW,225,9.3,12.7,87,0.00,CLR,OVC,0.00,WeatherDisplay:10.37,2013-05-28 09:35:00,
2013-05-28 05:37:00,64.3,60.3,30.21,SSW,207,11.0,14.0,87,0.00,CLR,OVC,0.00,WeatherDisplay:10.37,2013-05-28 09:37:00,
2013-05-28 05:38:00,64.3,60.7,30.21,SSW,210,12.5,15.0,88,0.00,CLR,OVC,0.00,WeatherDisplay:10.37,2013-05-28 09:38:00,
2013-05-28 05:39:00,64.3,60.3,30.21,SSW,211,11.2,12.7,87,0.00,CLR,OVC,0.00,WeatherDisplay:10.37,2013-05-28 09:39:00,
2013-05-28 05:41:00,64.3,60.7,30.21,SSW,207,11.8,12.7,88,0.00,CLR,OVC,0.00,WeatherDisplay:10.37,2013-05-28 09:41:00,
2013-05-28 05:43:00,64.2,60.6,30.21,SSW,211,7.6,10.4,88,0.00,CLR,OVC,0.00,WeatherDisplay:10.37,2013-05-28 09:43:00,
2013-05-28 05:44:00,64.2,60.6,30.21,SSW,209,7.7,10.4,88,0.00,CLR,OVC,0.00,WeatherDisplay:10.37,2013-05-28 09:44:00,
2013-05-28 05:45:00,64.2,60.6,30.21,SSW,206,8.7,11.5,88,0.00,CLR,OVC,0.00,WeatherDisplay:10.37,2013-05-28 09:45:00,
2013-05-28 05:46:00,64.0,60.4,30.21,SW,219,8.6,11.5,88,0.00,CLR,OVC,0.00,WeatherDisplay:10.37,2013-05-28 09:46:00,
2013-05-28 05:47:00,64.0,60.4,30.21,SSW,206,8.2,11.5,88,0.00,CLR,OVC,0.00,WeatherDisplay:10.37,2013-05-28 09:47:00,
2013-05-28 05:50:00,64.2,60.6,30.21,SSW,196,11.9,17.3,88,0.00,CLR,OVC,0.00,WeatherDisplay:10.37,2013-05-28 09:50:00,
2013-05-28 05:51:00,64.0,60.4,30.21,SSW,202,12.5,12.7,88,0.00,CLR,OVC,0.00,WeatherDisplay:10.37,2013-05-28 09:51:00,
2013-05-28 05:52:00,64.2,60.6,30.21,SSW,208,12.2,13.8,88,0.00,CLR,OVC,0.00,WeatherDisplay:10.37,2013-05-28 09:52:00,
2013-05-28 05:54:00,64.0,60.4,30.21,SSW,207,8.5,10.4,88,0.00,CLR,OVC,0.00,WeatherDisplay:10.37,2013-05-28 09:54:00,
2013-05-28 05:55:00,64.0,60.7,30.21,SSW,205,7.5,11.5,89,0.00,CLR,OVC,0.00,WeatherDisplay:10.37,2013-05-28 09:55:00,
2013-05-28 05:56:00,64.0,60.7,30.21,SSW,202,10.7,11.5,89,0.00,CLR,OVC,0.00,WeatherDisplay:10.37,2013-05-28 09:56:00,
2013-05-28 05:58:00,64.0,60.7,30.21,SSW,208,11.3,13.8,89,0.00,CLR,OVC,0.00,WeatherDisplay:10.37,2013-05-28 09:58:00,
2013-05-28 05:59:00,64.0,60.7,30.21,SSW,210,10.4,13.8,89,0.00,CLR,OVC,0.00,WeatherDisplay:10.37,2013-05-28 09:59:00,
2013-05-28 06:00:00,64.0,60.7,30.21,SW,214,11.6,13.8,89,0.00,CLR,OVC,0.00,WeatherDisplay:10.37,2013-05-28 10:00:00,
2013-05-28 06:02:00,64.0,60.7,30.21,SSW,207,9.9,11.5,89,0.00,CLR,OVC,0.00,WeatherDisplay:10.37,2013-05-28 10:02:00,
2013-05-28 06:03:00,64.0,60.7,30.21,SW,217,7.3,10.4,89,0.00,CLR,OVC,0.00,WeatherDisplay:10.37,2013-05-28 10:03:00,
2013-05-28 06:04:00,64.0,60.7,30.21,SW,216,9.7,12.7,89,0.00,CLR,OVC,0.00,WeatherDisplay:10.37,2013-05-28 10:04:00,
2013-05-28 06:06:00,64.0,60.7,30.21,SSW,205,10.6,13.8,89,0.00,CLR,OVC,0.00,WeatherDisplay:10.37,2013-05-28 10:06:00,
2013-05-28 06:07:00,64.0,60.7,30.21,SW,222,9.1,11.5,89,0.00,CLR,OVC,0.00,WeatherDisplay:10.37,2013-05-28 10:07:00,
2013-05-28 06:09:00,63.9,60.6,30.22,SW,222,6.3,8.1,89,0.00,CLR,OVC,0.00,WeatherDisplay:10.37,2013-05-28 10:09:00,
2013-05-28 06:12:00,63.9,60.6,30.22,SW,215,5.9,6.9,89,0.00,CLR,OVC,0.00,WeatherDisplay:10.37,2013-05-28 10:12:00,
2013-05-28 06:13:00,63.9,60.6,30.22,SW,215,5.2,6.9,89,0.00,CLR,OVC,0.00,WeatherDisplay:10.37,2013-05-28 10:13:00,
2013-05-28 06:14:00,63.7,60.4,30.22,SW,223,5.9,8.0,89,0.00,CLR,OVC,0.00,WeatherDisplay:10.37,2013-05-28 10:14:00,
2013-05-28 06:15:00,63.7,60.7,30.22,SW,223,6.6,8.1,90,0.00,CLR,OVC,0.00,WeatherDisplay:10.37,2013-05-28 10:15:00,
2013-05-28 06:17:00,63.7,60.7,30.22,SW,221,7.9,10.4,90,0.00,CLR,OVC,0.00,WeatherDisplay:10.37,2013-05-28 10:17:00,
2013-05-28 06:20:00,63.7,60.7,30.23,SW,223,5.1,7.0,90,0.00,CLR,OVC,0.00,WeatherDisplay:10.37,2013-05-28 10:20:00,
2013-05-28 06:21:00,63.7,60.7,30.23,SW,221,7.1,10.4,90,0.00,CLR,OVC,0.00,WeatherDisplay:10.37,2013-05-28 10:21:00,
2013-05-28 06:22:00,63.5,60.5,30.23,SW,222,5.2,6.9,90,0.00,CLR,OVC,0.00,WeatherDisplay:10.37,2013-05-28 10:22:00,
2013-05-28 06:26:00,63.5,60.8,30.23,SW,222,3.0,4.6,91,0.00,CLR,OVC,0.00,WeatherDisplay:10.37,2013-05-28 10:26:00,
2013-05-28 06:28:00,63.5,60.8,30.23,SW,222,3.2,4.6,91,0.00,CLR,OVC,0.00,WeatherDisplay:10.37,2013-05-28 10:28:00,
2013-05-28 06:29:00,63.5,60.8,30.23,SW,222,3.4,4.6,91,0.00,CLR,OVC,0.00,WeatherDisplay:10.37,2013-05-28 10:29:00,
2013-05-28 06:31:00,63.4,60.7,30.23,SW,222,2.2,3.5,91,0.00,CLR,OVC,0.00,WeatherDisplay:10.37,2013-05-28 10:31:00,
2013-05-28 06:33:00,63.4,60.7,30.23,SW,222,2.9,4.0,91,0.00,CLR,OVC,0.00,WeatherDisplay:10.37,2013-05-28 10:33:00,
2013-05-28 06:34:00,63.4,60.7,30.24,SW,222,3.3,4.6,91,0.00,CLR,OVC,0.00,WeatherDisplay:10.37,2013-05-28 10:34:00,
2013-05-28 06:35:00,63.4,60.7,30.24,SW,222,2.6,4.6,91,0.00,CLR,OVC,0.00,WeatherDisplay:10.37,2013-05-28 10:35:00,
2013-05-28 06:38:00,63.4,60.7,30.24,SW,222,1.1,3.5,91,0.00,CLR,OVC,0.00,WeatherDisplay:10.37,2013-05-28 10:38:00,
2013-05-28 06:39:00,63.4,60.7,30.24,SW,222,2.4,3.5,91,0.00,CLR,OVC,0.00,WeatherDisplay:10.37,2013-05-28 10:39:00,
2013-05-28 06:40:00,63.4,60.7,30.24,SW,222,3.7,4.6,91,0.00,CLR,OVC,0.00,WeatherDisplay:10.37,2013-05-28 10:40:00,
2013-05-28 06:42:00,63.4,60.7,30.24,SW,222,3.7,4.6,91,0.00,CLR,OVC,0.00,WeatherDisplay:10.37,2013-05-28 10:42:00,
2013-05-28 06:44:00,63.4,60.7,30.24,SW,222,3.5,4.0,91,0.00,CLR,OVC,0.00,WeatherDisplay:10.37,2013-05-28 10:44:00,
2013-05-28 06:45:00,63.4,60.7,30.24,SW,222,3.1,4.6,91,0.00,CLR,OVC,0.00,WeatherDisplay:10.37,2013-05-28 10:45:00,
2013-05-28 06:47:00,63.4,60.7,30.24,SW,222,1.5,4.6,91,0.00,CLR,OVC,0.00,WeatherDisplay:10.37,2013-05-28 10:47:00,
2013-05-28 06:50:00,63.4,60.7,30.24,SW,222,3.8,4.6,91,0.00,CLR,OVC,0.00,WeatherDisplay:10.37,2013-05-28 10:50:00,
2013-05-28 06:51:00,63.4,60.7,30.24,SW,222,3.3,5.0,91,0.00,CLR,OVC,0.00,WeatherDisplay:10.37,2013-05-28 10:51:00,
2013-05-28 06:53:00,63.4,60.7,30.25,SW,223,5.2,6.9,91,0.00,CLR,OVC,0.00,WeatherDisplay:10.37,2013-05-28 10:53:00,
2013-05-28 06:54:00,63.4,61.0,30.25,SW,223,4.8,5.8,92,0.00,CLR,OVC,0.00,WeatherDisplay:10.37,2013-05-28 10:54:00,
2013-05-28 06:56:00,63.4,60.7,30.25,SW,223,3.5,4.6,91,0.00,CLR,OVC,0.00,WeatherDisplay:10.37,2013-05-28 10:56:00,
2013-05-28 07:00:00,63.4,61.0,30.25,SW,224,5.1,5.8,92,0.00,CLR,OVC,0.00,WeatherDisplay:10.37,2013-05-28 11:00:00,
2013-05-28 07:01:00,63.4,61.0,30.25,SW,224,3.8,4.6,92,0.00,CLR,OVC,0.00,WeatherDisplay:10.37,2013-05-28 11:01:00,
2013-05-28 07:03:00,63.4,61.0,30.25,SW,224,2.7,3.5,92,0.00,CLR,OVC,0.00,WeatherDisplay:10.37,2013-05-28 11:03:00,
2013-05-28 07:04:00,63.4,61.0,30.25,SW,224,0.0,3.5,92,0.00,CLR,OVC,0.00,WeatherDisplay:10.37,2013-05-28 11:04:00,
2013-05-28 07:05:00,63.4,61.0,30.25,SW,224,0.0,0.0,92,0.00,CLR,OVC,0.00,WeatherDisplay:10.37,2013-05-28 11:05:00,
2013-05-28 07:06:00,63.4,61.0,30.25,SW,224,0.0,0.0,92,0.00,CLR,OVC,0.00,WeatherDisplay:10.37,2013-05-28 11:06:00,
2013-05-28 07:07:00,63.4,61.0,30.25,SW,224,0.0,0.0,92,0.00,CLR,OVC,0.00,WeatherDisplay:10.37,2013-05-28 11:07:00,
2013-05-28 07:09:00,63.4,61.0,30.25,SW,224,0.0,0.0,92,0.00,CLR,OVC,0.00,WeatherDisplay:10.37,2013-05-28 11:09:00,
2013-05-28 07:10:00,63.4,61.0,30.25,SW,224,0.0,0.0,92,0.00,CLR,OVC,0.00,WeatherDisplay:10.37,2013-05-28 11:10:00,
2013-05-28 07:11:00,63.5,61.1,30.26,SW,224,0.2,0.0,92,0.00,CLR,OVC,0.00,WeatherDisplay:10.37,2013-05-28 11:11:00,
2013-05-28 07:12:00,63.5,61.1,30.26,SW,224,1.0,2.3,92,0.00,CLR,OVC,0.00,WeatherDisplay:10.37,2013-05-28 11:12:00,
2013-05-28 07:14:00,63.5,61.1,30.26,SW,224,1.3,4.0,92,0.00,CLR,OVC,0.00,WeatherDisplay:10.37,2013-05-28 11:14:00,
2013-05-28 07:16:00,63.5,61.1,30.26,SW,224,4.6,5.8,92,0.00,CLR,OVC,0.00,WeatherDisplay:10.37,2013-05-28 11:16:00,
2013-05-28 07:17:00,63.5,61.1,30.26,SW,224,3.3,3.5,92,0.00,CLR,OVC,0.00,WeatherDisplay:10.37,2013-05-28 11:17:00,
2013-05-28 07:18:00,63.5,61.1,30.26,SW,224,2.8,4.6,92,0.00,CLR,OVC,0.00,WeatherDisplay:10.37,2013-05-28 11:18:00,
2013-05-28 07:19:00,63.5,61.1,30.26,SW,224,2.5,3.5,92,0.00,CLR,OVC,0.00,WeatherDisplay:10.37,2013-05-28 11:19:00,
2013-05-28 07:21:00,63.7,61.3,30.25,SW,224,5.1,6.0,92,0.00,CLR,OVC,0.00,WeatherDisplay:10.37,2013-05-28 11:21:00,
2013-05-28 07:24:00,63.7,61.3,30.25,SW,223,3.9,5.0,92,0.00,CLR,OVC,0.00,WeatherDisplay:10.37,2013-05-28 11:24:00,
2013-05-28 07:26:00,63.7,61.3,30.25,SW,223,4.6,5.8,92,0.00,CLR,OVC,0.00,WeatherDisplay:10.37,2013-05-28 11:26:00,
2013-05-28 07:27:00,63.7,61.3,30.25,SW,223,4.5,5.0,92,0.00,CLR,OVC,0.00,WeatherDisplay:10.37,2013-05-28 11:27:00,
2013-05-28 07:31:00,63.9,61.5,30.25,SW,222,0.3,3.5,92,0.00,CLR,OVC,0.00,WeatherDisplay:10.37,2013-05-28 11:31:00,
2013-05-28 07:32:00,63.9,61.5,30.25,SW,222,0.1,3.0,92,0.00,CLR,OVC,0.00,WeatherDisplay:10.37,2013-05-28 11:32:00,
2013-05-28 07:33:00,63.9,61.5,30.25,SW,222,3.6,5.0,92,0.00,CLR,OVC,0.00,WeatherDisplay:10.37,2013-05-28 11:33:00,
2013-05-28 07:34:00,63.9,61.5,30.25,SW,222,4.7,6.0,92,0.00,CLR,OVC,0.00,WeatherDisplay:10.37,2013-05-28 11:34:00,
2013-05-28 07:36:00,63.9,61.5,30.25,SW,222,4.0,4.6,92,0.00,CLR,OVC,0.00,WeatherDisplay:10.37,2013-05-28 11:36:00,
2013-05-28 07:38:00,64.0,61.6,30.25,SW,222,0.8,3.5,92,0.00,CLR,OVC,0.00,WeatherDisplay:10.37,2013-05-28 11:38:00,
2013-05-28 07:39:00,64.0,61.6,30.25,SW,222,3.6,5.0,92,0.00,CLR,OVC,0.00,WeatherDisplay:10.37,2013-05-28 11:39:00,
2013-05-28 07:40:00,64.2,61.8,30.25,SW,222,4.2,4.6,92,0.00,CLR,OVC,0.00,WeatherDisplay:10.37,2013-05-28 11:40:00,
2013-05-28 07:44:00,64.2,61.5,30.25,SW,215,3.9,5.0,91,0.00,CLR,OVC,0.00,WeatherDisplay:10.37,2013-05-28 11:44:00,
2013-05-28 07:45:00,64.2,61.5,30.25,SW,215,4.4,5.0,91,0.00,CLR,OVC,0.00,WeatherDisplay:10.37,2013-05-28 11:45:00,
2013-05-28 07:49:00,64.5,61.8,30.25,WSW,238,3.1,7.0,91,0.00,CLR,OVC,0.00,WeatherDisplay:10.37,2013-05-28 11:49:00,
2013-05-28 07:51:00,64.5,61.8,30.25,SW,236,5.0,6.9,91,0.00,CLR,OVC,0.00,WeatherDisplay:10.37,2013-05-28 11:51:00,
2013-05-28 07:52:00,64.5,61.5,30.25,WSW,238,6.4,7.0,90,0.00,CLR,OVC,0.00,WeatherDisplay:10.37,2013-05-28 11:52:00,
2013-05-28 07:53:00,64.5,61.8,30.25,SW,229,7.4,9.2,91,0.00,CLR,OVC,0.00,WeatherDisplay:10.37,2013-05-28 11:53:00,
2013-05-28 07:56:00,64.5,61.5,30.25,SW,230,3.4,8.1,90,0.00,CLR,OVC,0.00,WeatherDisplay:10.37,2013-05-28 11:56:00,
2013-05-28 07:58:00,64.5,61.5,30.27,SW,227,5.3,6.9,90,0.00,CLR,OVC,0.00,WeatherDisplay:10.37,2013-05-28 11:58:00,
2013-05-28 07:59:00,64.5,61.5,30.27,SW,220,6.0,9.2,90,0.00,CLR,OVC,0.00,WeatherDisplay:10.37,2013-05-28 11:59:00,
2013-05-28 08:00:00,64.5,61.5,30.27,SW,222,4.3,6.9,90,0.00,CLR,OVC,0.00,WeatherDisplay:10.37,2013-05-28 12:00:00,
2013-05-28 08:03:00,64.8,61.8,30.27,SW,223,3.2,4.6,90,0.00,BKN,OVC,0.00,WeatherDisplay:10.37,2013-05-28 12:03:00,
2013-05-28 08:04:00,64.8,61.8,30.27,SW,223,4.6,7.0,90,0.00,BKN,OVC,0.00,WeatherDisplay:10.37,2013-05-28 12:04:00,
2013-05-28 08:05:00,64.8,61.8,30.27,SW,223,5.0,6.9,90,0.00,BKN,OVC,0.00,WeatherDisplay:10.37,2013-05-28 12:05:00,
2013-05-28 08:10:00,65.0,62.0,30.27,SW,223,4.3,5.8,90,0.00,BKN,OVC,0.00,WeatherDisplay:10.37,2013-05-28 12:10:00,
2013-05-28 08:11:00,65.0,61.7,30.27,SW,221,4.6,7.0,89,0.00,BKN,OVC,0.00,WeatherDisplay:10.37,2013-05-28 12:11:00,
2013-05-28 08:12:00,65.0,62.0,30.27,SW,218,8.0,11.5,90,0.00,BKN,OVC,0.00,WeatherDisplay:10.37,2013-05-28 12:12:00,
2013-05-28 08:14:00,65.0,61.7,30.27,SW,219,6.7,10.4,89,0.00,BKN,OVC,0.00,WeatherDisplay:10.37,2013-05-28 12:14:00,
2013-05-28 08:16:00,65.2,61.9,30.27,SW,221,4.2,5.0,89,0.00,BKN,OVC,0.00,WeatherDisplay:10.37,2013-05-28 12:16:00,
2013-05-28 08:18:00,65.3,62.0,30.27,SW,215,7.9,10.0,89,0.00,BKN,OVC,0.00,WeatherDisplay:10.37,2013-05-28 12:18:00,
2013-05-28 08:19:00,65.3,62.0,30.27,SW,217,6.4,10.4,89,0.00,BKN,OVC,0.00,WeatherDisplay:10.37,2013-05-28 12:19:00,
2013-05-28 08:21:00,65.5,61.9,30.27,SW,218,4.9,6.9,88,0.00,BKN,OVC,0.00,WeatherDisplay:10.37,2013-05-28 12:21:00,
2013-05-28 08:23:00,65.6,61.9,30.27,SW,234,5.7,9.2,88,0.00,BKN,OVC,0.00,WeatherDisplay:10.37,2013-05-28 12:23:00,
2013-05-28 08:25:00,65.8,62.1,30.27,SSW,209,10.1,11.5,88,0.00,BKN,OVC,0.00,WeatherDisplay:10.37,2013-05-28 12:25:00,
2013-05-28 08:28:00,66.0,62.0,30.27,SSW,213,7.9,10.4,87,0.00,BKN,OVC,0.00,WeatherDisplay:10.37,2013-05-28 12:28:00,
2013-05-28 08:29:00,66.0,62.0,30.27,SSW,209,5.4,11.5,87,0.00,BKN,OVC,0.00,WeatherDisplay:10.37,2013-05-28 12:29:00,
2013-05-28 08:30:00,66.0,62.0,30.27,SW,215,2.0,12.0,87,0.00,BKN,OVC,0.00,WeatherDisplay:10.37,2013-05-28 12:30:00,
2013-05-28 08:33:00,66.1,62.1,30.27,SW,226,3.2,4.6,87,0.00,BKN,OVC,0.00,WeatherDisplay:10.37,2013-05-28 12:33:00,
2013-05-28 08:34:00,66.3,62.3,30.28,SW,226,1.5,3.5,87,0.00,BKN,OVC,0.00,WeatherDisplay:10.37,2013-05-28 12:34:00,
2013-05-28 08:35:00,66.3,62.3,30.27,SW,226,1.2,5.0,87,0.00,BKN,OVC,0.00,WeatherDisplay:10.37,2013-05-28 12:35:00,
2013-05-28 08:37:00,66.3,62.0,30.27,WSW,244,4.4,8.0,86,0.00,BKN,OVC,0.00,WeatherDisplay:10.37,2013-05-28 12:37:00,
2013-05-28 08:38:00,66.3,62.0,30.27,SW,234,7.0,10.0,86,0.00,BKN,OVC,0.00,WeatherDisplay:10.37,2013-05-28 12:38:00,
2013-05-28 08:39:00,66.3,62.0,30.27,SW,234,4.0,10.4,86,0.00,BKN,OVC,0.00,WeatherDisplay:10.37,2013-05-28 12:39:00,
2013-05-28 08:40:00,66.3,62.0,30.27,SW,232,5.8,6.0,86,0.00,BKN,OVC,0.00,WeatherDisplay:10.37,2013-05-28 12:40:00,
2013-05-28 08:41:00,66.3,62.0,30.27,SW,225,6.2,9.0,86,0.00,BKN,OVC,0.00,WeatherDisplay:10.37,2013-05-28 12:41:00,
2013-05-28 08:43:00,66.3,62.0,30.27,SW,225,5.1,9.2,86,0.00,BKN,OVC,0.00,WeatherDisplay:10.37,2013-05-28 12:43:00,
2013-05-28 08:44:00,66.3,62.0,30.27,SW,225,4.8,6.9,86,0.00,BKN,OVC,0.00,WeatherDisplay:10.37,2013-05-28 12:44:00,
2013-05-28 08:45:00,66.3,62.0,30.27,SW,225,4.2,5.8,86,0.00,BKN,OVC,0.00,WeatherDisplay:10.37,2013-05-28 12:45:00,
2013-05-28 08:46:00,66.3,62.0,30.27,SW,225,5.1,6.0,86,0.00,BKN,OVC,0.00,WeatherDisplay:10.37,2013-05-28 12:46:00,
2013-05-28 08:48:00,66.3,62.0,30.27,SW,218,7.0,9.2,86,0.00,BKN,OVC,0.00,WeatherDisplay:10.37,2013-05-28 12:48:00,
2013-05-28 08:50:00,66.4,61.8,30.27,SSW,210,9.3,11.5,85,0.00,BKN,OVC,0.00,WeatherDisplay:10.37,2013-05-28 12:50:00,
2013-05-28 08:53:00,66.6,61.9,30.27,SW,216,5.7,9.0,85,0.00,BKN,OVC,0.00,WeatherDisplay:10.37,2013-05-28 12:53:00,
2013-05-28 08:54:00,66.6,61.9,30.27,SW,223,6.7,10.4,85,0.00,BKN,OVC,0.00,WeatherDisplay:10.37,2013-05-28 12:54:00,
2013-05-28 08:55:00,66.6,61.6,30.27,SW,215,5.9,10.4,84,0.00,BKN,OVC,0.00,WeatherDisplay:10.37,2013-05-28 12:55:00,
2013-05-28 08:56:00,66.6,61.6,30.27,SW,217,5.6,9.2,84,0.00,BKN,OVC,0.00,WeatherDisplay:10.37,2013-05-28 12:56:00,
2013-05-28 08:57:00,66.6,61.9,30.27,SW,225,5.5,9.2,85,0.00,BKN,OVC,0.00,WeatherDisplay:10.37,2013-05-28 12:57:00,
2013-05-28 08:58:00,66.8,61.8,30.27,SW,223,5.9,9.2,84,0.00,BKN,OVC,0.00,WeatherDisplay:10.37,2013-05-28 12:58:00,
2013-05-28 08:59:00,66.8,61.8,30.27,SW,220,5.5,6.9,84,0.00,BKN,OVC,0.00,WeatherDisplay:10.37,2013-05-28 12:59:00,
2013-05-28 09:01:00,66.9,61.9,30.27,SW,229,5.2,6.9,84,0.00,BKN,OVC,0.00,WeatherDisplay:10.37,2013-05-28 13:01:00,
2013-05-28 09:03:00,67.1,62.1,30.27,SW,216,5.5,10.0,84,0.00,SCT,OVC,0.00,WeatherDisplay:10.37,2013-05-28 13:03:00,
2013-05-28 09:06:00,67.3,62.0,30.27,SW,221,8.0,11.5,83,0.00,SCT,OVC,0.00,WeatherDisplay:10.37,2013-05-28 13:06:00,
2013-05-28 09:07:00,67.3,62.0,30.27,WSW,238,7.3,10.4,83,0.00,SCT,OVC,0.00,WeatherDisplay:10.37,2013-05-28 13:07:00,
2013-05-28 09:08:00,67.3,62.0,30.28,SW,223,7.1,11.5,83,0.00,SCT,OVC,0.00,WeatherDisplay:10.37,2013-05-28 13:08:00,
2013-05-28 09:09:00,67.3,62.0,30.28,SW,225,8.4,11.5,83,0.00,SCT,OVC,0.00,WeatherDisplay:10.37,2013-05-28 13:09:00,
2013-05-28 09:11:00,67.3,62.0,30.28,SW,216,9.1,10.4,83,0.00,SCT,OVC,0.00,WeatherDisplay:10.37,2013-05-28 13:11:00,
2013-05-28 09:12:00,67.4,61.7,30.28,SSW,211,6.1,10.4,82,0.00,SCT,OVC,0.00,WeatherDisplay:10.37,2013-05-28 13:12:00,
2013-05-28 09:13:00,67.4,61.7,30.28,SSW,211,5.3,5.8,82,0.00,SCT,OVC,0.00,WeatherDisplay:10.37,2013-05-28 13:13:00,
2013-05-28 09:14:00,67.6,61.9,30.28,SSW,210,5.0,9.2,82,0.00,SCT,OVC,0.00,WeatherDisplay:10.37,2013-05-28 13:14:00,
2013-05-28 09:16:00,67.8,62.1,30.28,SSW,200,7.5,11.5,82,0.00,SCT,OVC,0.00,WeatherDisplay:10.37,2013-05-28 13:16:00,
2013-05-28 09:18:00,68.1,62.0,30.28,South,190,8.3,11.5,81,0.00,SCT,OVC,0.00,WeatherDisplay:10.37,2013-05-28 13:18:00,
2013-05-28 09:19:00,68.3,62.2,30.27,SW,220,6.8,11.5,81,0.00,SCT,OVC,0.00,WeatherDisplay:10.37,2013-05-28 13:19:00,
2013-05-28 09:20:00,68.1,62.0,30.27,SW,223,7.1,10.4,81,0.00,SCT,OVC,0.00,WeatherDisplay:10.37,2013-05-28 13:20:00,
2013-05-28 09:21:00,68.1,62.0,30.27,SW,221,8.0,11.5,81,0.00,SCT,OVC,0.00,WeatherDisplay:10.37,2013-05-28 13:21:00,
2013-05-28 09:23:00,68.3,62.2,30.27,SSW,210,8.8,11.5,81,0.00,SCT,OVC,0.00,WeatherDisplay:10.37,2013-05-28 13:23:00,
2013-05-28 09:25:00,68.3,61.9,30.27,SSW,213,5.4,8.1,80,0.00,SCT,OVC,0.00,WeatherDisplay:10.37,2013-05-28 13:25:00,
2013-05-28 09:27:00,68.3,62.2,30.27,SW,218,4.6,5.0,81,0.00,SCT,OVC,0.00,WeatherDisplay:10.37,2013-05-28 13:27:00,
2013-05-28 09:28:00,68.4,62.3,30.27,SW,218,4.9,7.0,81,0.00,SCT,OVC,0.00,WeatherDisplay:10.37,2013-05-28 13:28:00,
2013-05-28 09:29:00,68.4,62.3,30.27,SW,219,7.8,7.8,81,0.00,SCT,OVC,0.00,WeatherDisplay:10.37,2013-05-28 13:29:00,
2013-05-28 09:30:00,68.4,62.0,30.27,SW,219,5.9,10.4,80,0.00,SCT,OVC,0.00,WeatherDisplay:10.37,2013-05-28 13:30:00,
2013-05-28 09:34:00,68.6,62.2,30.27,SSW,211,6.5,9.2,80,0.00,SCT,OVC,0.00,WeatherDisplay:10.37,2013-05-28 13:34:00,
2013-05-28 09:35:00,68.6,62.2,30.27,SSW,211,5.7,9.2,80,0.00,SCT,OVC,0.00,WeatherDisplay:10.37,2013-05-28 13:35:00,
2013-05-28 09:36:00,68.6,61.8,30.27,SSW,211,5.7,7.0,79,0.00,SCT,OVC,0.00,WeatherDisplay:10.37,2013-05-28 13:36:00,
2013-05-28 09:37:00,68.6,61.8,30.27,SSW,211,5.9,6.9,79,0.00,SCT,OVC,0.00,WeatherDisplay:10.37,2013-05-28 13:37:00,
2013-05-28 09:39:00,68.8,62.4,30.27,SW,228,8.2,9.2,80,0.00,SCT,OVC,0.00,WeatherDisplay:10.37,2013-05-28 13:39:00,
2013-05-28 09:41:00,68.8,62.0,30.27,SW,228,5.8,7.0,79,0.00,SCT,OVC,0.00,WeatherDisplay:10.37,2013-05-28 13:41:00,
2013-05-28 09:42:00,68.9,62.5,30.27,SW,225,4.2,8.1,80,0.00,SCT,OVC,0.00,WeatherDisplay:10.37,2013-05-28 13:42:00,
2013-05-28 09:45:00,69.3,62.5,30.27,SW,224,5.0,10.0,79,0.00,SCT,OVC,0.00,WeatherDisplay:10.37,2013-05-28 13:45:00,
2013-05-28 09:47:00,69.3,62.1,30.27,SW,223,4.8,6.9,78,0.00,SCT,OVC,0.00,WeatherDisplay:10.37,2013-05-28 13:47:00,
2013-05-28 09:48:00,69.4,62.6,30.27,SSW,198,10.3,12.7,79,0.00,SCT,OVC,0.00,WeatherDisplay:10.37,2013-05-28 13:48:00,
2013-05-28 09:51:00,69.4,62.2,30.27,SW,226,7.8,11.5,78,0.00,SCT,OVC,0.00,WeatherDisplay:10.37,2013-05-28 13:51:00,
2013-05-28 09:52:00,69.6,62.4,30.27,SW,227,6.3,6.9,78,0.00,SCT,OVC,0.00,WeatherDisplay:10.37,2013-05-28 13:52:00,
2013-05-28 09:53:00,69.8,62.6,30.27,SW,219,6.3,9.2,78,0.00,SCT,OVC,0.00,WeatherDisplay:10.37,2013-05-28 13:53:00,
2013-05-28 09:55:00,69.9,62.4,30.27,SSW,211,6.9,12.0,77,0.00,SCT,OVC,0.00,WeatherDisplay:10.37,2013-05-28 13:55:00,
2013-05-28 09:56:00,69.9,62.0,30.27,SSW,209,11.1,12.7,76,0.00,SCT,OVC,0.00,WeatherDisplay:10.37,2013-05-28 13:56:00,
2013-05-28 09:58:00,70.1,62.6,30.27,SSW,206,6.6,9.2,77,0.00,SCT,OVC,0.00,WeatherDisplay:10.37,2013-05-28 13:58:00,
2013-05-28 10:00:00,70.3,62.4,30.27,SSW,198,6.6,10.0,76,0.00,SCT,OVC,0.00,WeatherDisplay:10.37,2013-05-28 14:00:00,
2013-05-28 10:01:00,70.6,63.0,30.27,SW,215,6.2,11.0,77,0.00,SCT,OVC,0.00,WeatherDisplay:10.37,2013-05-28 14:01:00,
2013-05-28 10:02:00,70.8,63.2,30.27,SSW,209,8.9,16.0,77,0.00,FEW,OVC,0.00,WeatherDisplay:10.37,2013-05-28 14:02:00,
2013-05-28 10:04:00,70.9,62.6,30.27,SW,217,9.1,11.5,75,0.00,FEW,OVC,0.00,WeatherDisplay:10.37,2013-05-28 14:04:00,
2013-05-28 10:06:00,70.8,62.5,30.27,WSW,237,6.5,9.2,75,0.00,FEW,OVC,0.00,WeatherDisplay:10.37,2013-05-28 14:06:00,
2013-05-28 10:07:00,70.9,63.0,30.27,SW,229,5.5,9.2,76,0.00,FEW,OVC,0.00,WeatherDisplay:10.37,2013-05-28 14:07:00,
2013-05-28 10:09:00,70.9,62.6,30.27,SW,236,5.7,8.1,75,0.00,FEW,OVC,0.00,WeatherDisplay:10.37,2013-05-28 14:09:00,
2013-05-28 10:10:00,70.9,62.6,30.27,WSW,252,3.5,9.2,75,0.00,FEW,OVC,0.00,WeatherDisplay:10.37,2013-05-28 14:10:00,
2013-05-28 10:11:00,70.9,62.6,30.27,WSW,246,3.2,7.0,75,0.00,FEW,OVC,0.00,WeatherDisplay:10.37,2013-05-28 14:11:00,
2013-05-28 10:12:00,70.9,61.8,30.27,SSW,203,11.5,14.0,73,0.00,FEW,OVC,0.00,WeatherDisplay:10.37,2013-05-28 14:12:00,
2013-05-28 10:14:00,70.9,61.4,30.27,SW,234,12.6,17.3,72,0.00,FEW,OVC,0.00,WeatherDisplay:10.37,2013-05-28 14:14:00,
2013-05-28 10:15:00,70.9,61.8,30.27,SW,221,8.0,10.4,73,0.00,FEW,OVC,0.00,WeatherDisplay:10.37,2013-05-28 14:15:00,
2013-05-28 10:17:00,70.9,61.4,30.27,SW,225,8.1,11.5,72,0.00,FEW,OVC,0.00,WeatherDisplay:10.37,2013-05-28 14:17:00,
2013-05-28 10:18:00,71.1,61.6,30.27,SW,218,5.8,8.1,72,0.00,FEW,OVC,0.00,WeatherDisplay:10.37,2013-05-28 14:18:00,
2013-05-28 10:19:00,71.1,62.0,30.27,SW,234,7.0,11.5,73,0.00,FEW,OVC,0.00,WeatherDisplay:10.37,2013-05-28 14:19:00,
2013-05-28 10:23:00,71.8,61.9,30.27,SW,218,9.4,12.0,71,0.00,FEW,OVC,0.00,WeatherDisplay:10.37,2013-05-28 14:23:00,
2013-05-28 10:24:00,71.8,61.5,30.27,SW,230,7.9,11.5,70,0.00,FEW,OVC,0.00,WeatherDisplay:10.37,2013-05-28 14:24:00,
2013-05-28 10:25:00,71.8,61.5,30.27,SW,221,7.2,10.0,70,0.00,FEW,OVC,0.00,WeatherDisplay:10.37,2013-05-28 14:25:00,
2013-05-28 10:27:00,72.0,62.1,30.27,WSW,245,6.6,11.5,71,0.00,FEW,OVC,0.00,WeatherDisplay:10.37,2013-05-28 14:27:00,
2013-05-28 10:30:00,72.3,62.4,30.27,SSW,192,2.7,9.2,71,0.00,FEW,OVC,0.00,WeatherDisplay:10.37,2013-05-28 14:30:00,
2013-05-28 10:32:00,72.7,61.9,30.27,South,169,8.9,12.7,69,0.00,FEW,OVC,0.00,WeatherDisplay:10.37,2013-05-28 14:32:00,
2013-05-28 10:35:00,72.7,61.9,30.27,SSW,196,4.5,9.2,69,0.00,FEW,OVC,0.00,WeatherDisplay:10.37,2013-05-28 14:35:00,
2013-05-28 10:36:00,72.8,62.0,30.27,SSW,196,5.8,10.0,69,0.00,FEW,OVC,0.00,WeatherDisplay:10.37,2013-05-28 14:36:00,
2013-05-28 10:37:00,73.0,62.2,30.27,SSW,213,8.9,11.0,69,0.00,FEW,OVC,0.00,WeatherDisplay:10.37,2013-05-28 14:37:00,
2013-05-28 10:38:00,73.2,62.4,30.27,SW,222,11.5,14.0,69,0.00,FEW,OVC,0.00,WeatherDisplay:10.37,2013-05-28 14:38:00,
2013-05-28 10:41:00,73.2,60.7,30.27,SSW,209,13.4,16.1,65,0.00,FEW,OVC,0.00,WeatherDisplay:10.37,2013-05-28 14:41:00,
2013-05-28 10:43:00,73.2,60.7,30.27,SW,215,10.5,12.7,65,0.00,FEW,OVC,0.00,WeatherDisplay:10.37,2013-05-28 14:43:00,
2013-05-28 10:44:00,73.3,61.3,30.27,SSW,213,11.0,12.0,66,0.00,FEW,OVC,0.00,WeatherDisplay:10.37,2013-05-28 14:44:00,
2013-05-28 10:45:00,73.3,61.3,30.27,SW,219,10.7,12.7,66,0.00,FEW,OVC,0.00,WeatherDisplay:10.37,2013-05-28 14:45:00,
2013-05-28 10:47:00,73.5,61.9,30.27,South,190,7.0,12.7,67,0.00,FEW,OVC,0.00,WeatherDisplay:10.37,2013-05-28 14:47:00,
2013-05-28 10:49:00,73.9,61.0,30.27,SSW,197,9.2,15.0,64,0.00,FEW,OVC,0.00,WeatherDisplay:10.37,2013-05-28 14:49:00,
2013-05-28 10:51:00,73.9,60.1,30.28,SW,219,11.7,15.0,62,0.00,FEW,OVC,0.00,WeatherDisplay:10.37,2013-05-28 14:51:00,
2013-05-28 10:52:00,74.0,61.0,30.28,SSW,212,8.8,11.5,64,0.00,FEW,OVC,0.00,WeatherDisplay:10.37,2013-05-28 14:52:00,
2013-05-28 10:55:00,74.2,60.3,30.28,WSW,244,9.6,15.0,62,0.00,FEW,OVC,0.00,WeatherDisplay:10.37,2013-05-28 14:55:00,
2013-05-28 10:56:00,74.2,60.8,30.28,SW,229,14.6,16.1,63,0.00,FEW,OVC,0.00,WeatherDisplay:10.37,2013-05-28 14:56:00,
2013-05-28 10:57:00,74.2,60.8,30.28,SW,217,10.4,15.0,63,0.00,FEW,OVC,0.00,WeatherDisplay:10.37,2013-05-28 14:57:00,
2013-05-28 10:58:00,74.2,60.8,30.28,SW,224,10.2,11.5,63,0.00,FEW,OVC,0.00,WeatherDisplay:10.37,2013-05-28 14:58:00,
2013-05-28 11:00:00,74.4,60.5,30.28,SW,234,6.6,10.4,62,0.00,FEW,OVC,0.00,WeatherDisplay:10.37,2013-05-28 15:00:00,
2013-05-28 11:02:00,74.6,62.1,30.28,SW,222,8.6,11.5,65,0.00,FEW,OVC,0.00,WeatherDisplay:10.37,2013-05-28 15:02:00,
2013-05-28 11:04:00,74.7,61.7,30.28,SW,227,9.3,11.5,64,0.00,FEW,OVC,0.00,WeatherDisplay:10.37,2013-05-28 15:04:00,
2013-05-28 11:08:00,74.7,60.8,30.28,WSW,249,6.6,10.4,62,0.00,FEW,OVC,0.00,WeatherDisplay:10.37,2013-05-28 15:08:00,
2013-05-28 11:09:00,74.9,61.5,30.28,WSW,243,8.1,12.0,63,0.00,FEW,OVC,0.00,WeatherDisplay:10.37,2013-05-28 15:09:00,
2013-05-28 11:10:00,74.7,60.8,30.28,SW,223,10.6,12.7,62,0.00,FEW,OVC,0.00,WeatherDisplay:10.37,2013-05-28 15:10:00,
2013-05-28 11:11:00,74.7,60.8,30.28,SW,228,7.7,12.7,62,0.00,FEW,OVC,0.00,WeatherDisplay:10.37,2013-05-28 15:11:00,
2013-05-28 11:15:00,75.3,61.4,30.28,SW,231,7.0,14.0,62,0.00,FEW,OVC,0.00,WeatherDisplay:10.37,2013-05-28 15:15:00,
2013-05-28 11:16:00,75.3,61.8,30.28,WSW,244,7.0,10.0,63,0.00,FEW,OVC,0.00,WeatherDisplay:10.37,2013-05-28 15:16:00,
2013-05-28 11:18:00,75.4,60.5,30.28,SSW,197,14.6,18.4,60,0.00,FEW,OVC,0.00,WeatherDisplay:10.37,2013-05-28 15:18:00,
2013-05-28 11:19:00,75.6,60.7,30.28,SW,221,12.4,19.6,60,0.00,FEW,OVC,0.00,WeatherDisplay:10.37,2013-05-28 15:19:00,
2013-05-28 11:21:00,75.4,60.1,30.28,WSW,242,13.1,13.8,59,0.00,FEW,OVC,0.00,WeatherDisplay:10.37,2013-05-28 15:21:00,
2013-05-28 11:22:00,75.4,60.1,30.28,SW,231,13.1,15.0,59,0.00,FEW,OVC,0.00,WeatherDisplay:10.37,2013-05-28 15:22:00,
2013-05-28 11:23:00,75.6,60.7,30.27,SW,222,12.5,15.0,60,0.00,FEW,OVC,0.00,WeatherDisplay:10.37,2013-05-28 15:23:00,
2013-05-28 11:24:00,75.6,61.7,30.27,SW,220,11.6,15.0,62,0.00,FEW,OVC,0.00,WeatherDisplay:10.37,2013-05-28 15:24:00,
2013-05-28 11:27:00,75.8,60.9,30.28,SW,217,8.6,12.7,60,0.00,FEW,OVC,0.00,WeatherDisplay:10.37,2013-05-28 15:27:00,
2013-05-28 11:28:00,75.8,61.4,30.28,SSW,208,8.6,11.5,61,0.00,FEW,OVC,0.00,WeatherDisplay:10.37,2013-05-28 15:28:00,
2013-05-28 11:29:00,76.0,61.1,30.28,WSW,237,9.0,15.0,60,0.00,FEW,OVC,0.00,WeatherDisplay:10.37,2013-05-28 15:29:00,
2013-05-28 11:31:00,76.1,61.2,30.27,SSW,202,12.8,16.1,60,0.00,FEW,OVC,0.00,WeatherDisplay:10.37,2013-05-28 15:31:00,
2013-05-28 11:33:00,76.1,60.7,30.28,SSW,211,9.3,12.7,59,0.00,FEW,OVC,0.00,WeatherDisplay:10.37,2013-05-28 15:33:00,
2013-05-28 11:35:00,76.3,61.4,30.27,SW,220,14.7,17.3,60,0.00,FEW,OVC,0.00,WeatherDisplay:10.37,2013-05-28 15:35:00,
2013-05-28 11:37:00,76.5,61.1,30.27,WSW,245,6.4,16.1,59,0.00,FEW,OVC,0.00,WeatherDisplay:10.37,2013-05-28 15:37:00,
2013-05-28 11:38:00,76.5,61.1,30.27,WSW,241,6.9,11.5,59,0.00,FEW,OVC,0.00,WeatherDisplay:10.37,2013-05-28 15:38:00,
2013-05-28 11:39:00,76.7,62.2,30.27,South,175,7.9,11.5,61,0.00,FEW,OVC,0.00,WeatherDisplay:10.37,2013-05-28 15:39:00,
2013-05-28 11:43:00,76.5,60.1,30.27,SSW,205,8.0,11.5,57,0.00,FEW,OVC,0.00,WeatherDisplay:10.37,2013-05-28 15:43:00,
2013-05-28 11:45:00,76.5,61.6,30.27,SW,215,11.5,15.0,60,0.00,FEW,OVC,0.00,WeatherDisplay:10.37,2013-05-28 15:45:00,
2013-05-28 11:46:00,76.3,61.4,30.27,SSW,207,9.8,13.8,60,0.00,FEW,OVC,0.00,WeatherDisplay:10.37,2013-05-28 15:46:00,
2013-05-28 11:48:00,76.3,60.9,30.27,SSW,206,9.4,13.0,59,0.00,FEW,OVC,0.00,WeatherDisplay:10.37,2013-05-28 15:48:00,
2013-05-28 11:50:00,76.5,60.6,30.27,SSW,204,12.0,13.8,58,0.00,FEW,OVC,0.00,WeatherDisplay:10.37,2013-05-28 15:50:00,
2013-05-28 11:51:00,76.3,60.4,30.27,SSW,202,11.2,12.7,58,0.00,FEW,OVC,0.00,WeatherDisplay:10.37,2013-05-28 15:51:00,
2013-05-28 11:56:00,76.7,60.8,30.27,SW,222,11.6,13.8,58,0.00,FEW,OVC,0.00,WeatherDisplay:10.37,2013-05-28 15:56:00,
2013-05-28 11:57:00,76.7,60.8,30.27,SW,217,11.2,13.8,58,0.00,FEW,OVC,0.00,WeatherDisplay:10.37,2013-05-28 15:57:00,
2013-05-28 11:59:00,76.7,61.3,30.27,SW,221,9.4,11.5,59,0.00,FEW,OVC,0.00,WeatherDisplay:10.37,2013-05-28 15:59:00,
2013-05-28 12:00:00,76.7,60.8,30.27,SW,221,8.0,14.0,58,0.00,FEW,OVC,0.00,WeatherDisplay:10.37,2013-05-28 16:00:00,
2013-05-28 12:02:00,77.0,62.0,30.27,SW,227,6.2,11.5,60,0.00,FEW,OVC,0.00,WeatherDisplay:10.37,2013-05-28 16:02:00,
2013-05-28 12:03:00,77.4,62.4,30.27,SW,233,12.2,14.0,60,0.00,FEW,OVC,0.00,WeatherDisplay:10.37,2013-05-28 16:03:00,
2013-05-28 12:05:00,77.4,61.5,30.27,SSW,213,12.4,13.8,58,0.00,FEW,OVC,0.00,WeatherDisplay:10.37,2013-05-28 16:05:00,
2013-05-28 12:08:00,77.2,59.8,30.27,SSW,204,13.4,19.6,55,0.00,FEW,OVC,0.00,WeatherDisplay:10.37,2013-05-28 16:08:00,
2013-05-28 12:09:00,77.2,61.3,30.27,SSW,209,10.6,14.0,58,0.00,FEW,OVC,0.00,WeatherDisplay:10.37,2013-05-28 16:09:00,
2013-05-28 12:11:00,77.2,60.8,30.27,SW,229,9.1,11.5,57,0.00,FEW,OVC,0.00,WeatherDisplay:10.37,2013-05-28 16:11:00,
2013-05-28 12:13:00,77.4,61.5,30.27,SSW,205,8.6,11.5,58,0.00,FEW,OVC,0.00,WeatherDisplay:10.37,2013-05-28 16:13:00,
2013-05-28 12:14:00,77.6,61.7,30.27,SW,221,8.9,11.5,58,0.00,FEW,OVC,0.00,WeatherDisplay:10.37,2013-05-28 16:14:00,
2013-05-28 12:16:00,77.7,62.7,30.27,WSW,240,12.4,17.3,60,0.00,FEW,OVC,0.00,WeatherDisplay:10.37,2013-05-28 16:16:00,
2013-05-28 12:17:00,77.7,62.2,30.27,SW,226,13.1,16.1,59,0.00,FEW,OVC,0.00,WeatherDisplay:10.37,2013-05-28 16:17:00,
2013-05-28 12:20:00,77.6,61.2,30.26,SW,216,8.3,11.5,57,0.00,FEW,OVC,0.00,WeatherDisplay:10.37,2013-05-28 16:20:00,
2013-05-28 12:21:00,77.6,60.7,30.26,SSW,210,9.2,12.7,56,0.00,FEW,OVC,0.00,WeatherDisplay:10.37,2013-05-28 16:21:00,
2013-05-28 12:23:00,77.4,60.5,30.26,South,190,9.7,12.7,56,0.00,FEW,OVC,0.00,WeatherDisplay:10.37,2013-05-28 16:23:00,
2013-05-28 12:26:00,78.1,61.1,30.26,SSW,204,14.0,20.0,56,0.00,FEW,OVC,0.00,WeatherDisplay:10.37,2013-05-28 16:26:00,
2013-05-28 12:28:00,77.9,60.9,30.26,SSW,212,10.7,18.4,56,0.00,FEW,OVC,0.00,WeatherDisplay:10.37,2013-05-28 16:28:00,
2013-05-28 12:29:00,77.9,60.4,30.26,SSW,211,11.2,16.1,55,0.00,FEW,OVC,0.00,WeatherDisplay:10.37,2013-05-28 16:29:00,
2013-05-28 12:30:00,77.7,60.8,30.26,SSW,209,12.0,20.0,56,0.00,FEW,OVC,0.00,WeatherDisplay:10.37,2013-05-28 16:30:00,
2013-05-28 12:34:00,77.7,61.3,30.25,SW,224,14.6,19.6,57,0.00,FEW,OVC,0.00,WeatherDisplay:10.37,2013-05-28 16:34:00,
2013-05-28 12:35:00,77.7,61.3,30.26,SW,234,14.2,17.3,57,0.00,FEW,OVC,0.00,WeatherDisplay:10.37,2013-05-28 16:35:00,
2013-05-28 12:36:00,77.7,60.8,30.26,SW,235,13.0,16.1,56,0.00,FEW,OVC,0.00,WeatherDisplay:10.37,2013-05-28 16:36:00,
2013-05-28 12:37:00,77.6,59.6,30.26,WSW,250,11.7,13.8,54,0.00,FEW,OVC,0.00,WeatherDisplay:10.37,2013-05-28 16:37:00,
2013-05-28 12:40:00,77.7,61.3,30.26,WSW,247,9.2,16.1,57,0.00,FEW,OVC,0.00,WeatherDisplay:10.37,2013-05-28 16:40:00,
2013-05-28 12:41:00,77.7,62.2,30.26,SW,234,14.2,15.0,59,0.00,FEW,OVC,0.00,WeatherDisplay:10.37,2013-05-28 16:41:00,
2013-05-28 12:42:00,77.6,62.1,30.26,SW,219,17.3,20.7,59,0.00,FEW,OVC,0.00,WeatherDisplay:10.37,2013-05-28 16:42:00,
2013-05-28 12:43:00,77.6,62.1,30.26,SSW,212,14.7,20.7,59,0.00,FEW,OVC,0.00,WeatherDisplay:10.37,2013-05-28 16:43:00,
2013-05-28 12:45:00,77.9,62.4,30.26,SW,232,9.6,14.0,59,0.00,FEW,OVC,0.00,WeatherDisplay:10.37,2013-05-28 16:45:00,
2013-05-28 12:46:00,77.9,62.4,30.26,SW,236,13.2,18.0,59,0.00,FEW,OVC,0.00,WeatherDisplay:10.37,2013-05-28 16:46:00,
2013-05-28 12:51:00,78.1,59.6,30.25,South,187,15.2,20.7,53,0.00,FEW,OVC,0.00,WeatherDisplay:10.37,2013-05-28 16:51:00,
2013-05-28 12:52:00,77.9,59.9,30.25,South,180,11.4,13.8,54,0.00,FEW,OVC,0.00,WeatherDisplay:10.37,2013-05-28 16:52:00,
2013-05-28 12:53:00,78.1,60.1,30.25,SSW,207,10.8,15.0,54,0.00,FEW,OVC,0.00,WeatherDisplay:10.37,2013-05-28 16:53:00,
2013-05-28 12:57:00,78.8,60.7,30.25,SW,221,11.1,11.5,54,0.00,FEW,OVC,0.00,WeatherDisplay:10.37,2013-05-28 16:57:00,
2013-05-28 12:58:00,78.8,60.7,30.25,SSW,210,10.9,13.8,54,0.00,FEW,OVC,0.00,WeatherDisplay:10.37,2013-05-28 16:58:00,
2013-05-28 12:59:00,78.8,61.3,30.25,SSW,211,11.5,18.4,55,0.00,FEW,OVC,0.00,WeatherDisplay:10.37,2013-05-28 16:59:00,
2013-05-28 13:01:00,78.6,61.6,30.25,SSW,198,14.7,17.3,56,0.00,FEW,OVC,0.00,WeatherDisplay:10.37,2013-05-28 17:01:00,
2013-05-28 13:03:00,78.6,60.6,30.25,SSW,192,8.4,11.5,54,0.00,FEW,OVC,0.00,WeatherDisplay:10.37,2013-05-28 17:03:00,
2013-05-28 13:05:00,78.5,61.0,30.25,SSW,210,19.1,20.7,55,0.00,FEW,OVC,0.00,WeatherDisplay:10.37,2013-05-28 17:05:00,
2013-05-28 13:08:00,78.5,61.5,30.25,SW,217,12.4,16.1,56,0.00,FEW,OVC,0.00,WeatherDisplay:10.37,2013-05-28 17:08:00,
2013-05-28 13:09:00,78.5,61.5,30.25,SSW,207,12.7,17.0,56,0.00,FEW,OVC,0.00,WeatherDisplay:10.37,2013-05-28 17:09:00,
2013-05-28 13:10:00,78.5,61.5,30.25,SSW,204,15.6,19.6,56,0.00,FEW,OVC,0.00,WeatherDisplay:10.37,2013-05-28 17:10:00,
2013-05-28 13:14:00,78.8,60.7,30.25,WSW,239,6.4,11.5,54,0.00,FEW,OVC,0.00,WeatherDisplay:10.37,2013-05-28 17:14:00,
2013-05-28 13:15:00,79.0,60.4,30.25,SW,220,5.6,10.4,53,0.00,FEW,OVC,0.00,WeatherDisplay:10.37,2013-05-28 17:15:00,
2013-05-28 13:16:00,78.8,60.2,30.25,SW,216,15.2,17.3,53,0.00,FEW,OVC,0.00,WeatherDisplay:10.37,2013-05-28 17:16:00,
2013-05-28 13:19:00,78.6,60.0,30.24,SSW,202,9.3,15.0,53,0.00,FEW,OVC,0.00,WeatherDisplay:10.37,2013-05-28 17:19:00,
2013-05-28 13:21:00,78.6,60.6,30.24,SSW,207,7.2,11.5,54,0.00,FEW,OVC,0.00,WeatherDisplay:10.37,2013-05-28 17:21:00,
2013-05-28 13:23:00,78.8,61.3,30.24,WSW,244,7.0,11.0,55,0.00,FEW,OVC,0.00,WeatherDisplay:10.37,2013-05-28 17:23:00,
2013-05-28 13:24:00,79.0,61.5,30.24,SW,219,9.8,11.5,55,0.00,FEW,OVC,0.00,WeatherDisplay:10.37,2013-05-28 17:24:00,
2013-05-28 13:26:00,79.4,61.3,30.24,SW,229,12.7,18.4,54,0.00,FEW,OVC,0.00,WeatherDisplay:10.37,2013-05-28 17:26:00,
2013-05-28 13:27:00,79.6,61.5,30.24,SSW,193,13.4,18.4,54,0.00,FEW,OVC,0.00,WeatherDisplay:10.37,2013-05-28 17:27:00,
2013-05-28 13:28:00,79.6,60.4,30.24,SSW,196,10.6,21.9,52,0.00,FEW,OVC,0.00,WeatherDisplay:10.37,2013-05-28 17:28:00,
2013-05-28 13:29:00,79.6,61.5,30.24,SSW,200,11.1,15.0,54,0.00,FEW,OVC,0.00,WeatherDisplay:10.37,2013-05-28 17:29:00,
2013-05-28 13:30:00,79.6,61.0,30.24,SW,216,12.0,22.0,53,0.00,FEW,OVC,0.00,WeatherDisplay:10.37,2013-05-28 17:30:00,
2013-05-28 13:33:00,79.8,61.7,30.24,SSW,195,17.4,20.7,54,0.00,FEW,OVC,0.00,WeatherDisplay:10.37,2013-05-28 17:33:00,
2013-05-28 13:34:00,79.8,60.6,30.24,South,175,16.4,19.6,52,0.00,FEW,OVC,0.00,WeatherDisplay:10.37,2013-05-28 17:34:00,
2013-05-28 13:36:00,79.8,61.1,30.23,SSW,197,15.6,19.6,53,0.00,FEW,OVC,0.00,WeatherDisplay:10.37,2013-05-28 17:36:00,
2013-05-28 13:37:00,79.6,60.4,30.23,SSW,206,15.1,18.4,52,0.00,FEW,OVC,0.00,WeatherDisplay:10.37,2013-05-28 17:37:00,
2013-05-28 13:38:00,79.4,60.2,30.23,SW,217,14.8,19.6,52,0.00,FEW,OVC,0.00,WeatherDisplay:10.37,2013-05-28 17:38:00,
2013-05-28 13:40:00,79.4,60.8,30.23,SSW,193,12.8,18.4,53,0.00,FEW,OVC,0.00,WeatherDisplay:10.37,2013-05-28 17:40:00,
2013-05-28 13:41:00,79.4,60.8,30.23,SSW,193,14.7,18.4,53,0.00,FEW,OVC,0.00,WeatherDisplay:10.37,2013-05-28 17:41:00,
2013-05-28 13:43:00,79.2,60.1,30.23,SSW,200,12.4,15.0,52,0.00,FEW,OVC,0.00,WeatherDisplay:10.37,2013-05-28 17:43:00,
2013-05-28 13:44:00,79.2,60.6,30.23,South,171,11.3,17.3,53,0.00,FEW,OVC,0.00,WeatherDisplay:10.37,2013-05-28 17:44:00,
2013-05-28 13:46:00,79.8,62.7,30.23,South,188,9.7,17.0,56,0.00,FEW,OVC,0.00,WeatherDisplay:10.37,2013-05-28 17:46:00,
2013-05-28 13:50:00,79.6,59.9,30.23,SSW,207,12.2,15.0,51,0.00,FEW,OVC,0.00,WeatherDisplay:10.37,2013-05-28 17:50:00,
2013-05-28 13:51:00,79.8,61.7,30.24,SW,219,12.4,17.3,54,0.00,FEW,OVC,0.00,WeatherDisplay:10.37,2013-05-28 17:51:00,
2013-05-28 13:52:00,79.8,62.2,30.24,SSW,205,15.3,17.3,55,0.00,FEW,OVC,0.00,WeatherDisplay:10.37,2013-05-28 17:52:00,
2013-05-28 13:55:00,79.6,61.0,30.23,SSW,200,14.2,16.0,53,0.00,FEW,OVC,0.00,WeatherDisplay:10.37,2013-05-28 17:55:00,
2013-05-28 13:58:00,79.6,59.3,30.23,SSW,211,17.5,26.5,50,0.00,FEW,OVC,0.00,WeatherDisplay:10.37,2013-05-28 17:58:00,
2013-05-28 14:00:00,79.4,59.1,30.23,SW,227,10.5,15.0,50,0.00,FEW,OVC,0.00,WeatherDisplay:10.37,2013-05-28 18:00:00,
2013-05-28 14:01:00,79.4,59.7,30.23,SW,229,7.8,11.5,51,0.00,FEW,OVC,0.00,WeatherDisplay:10.37,2013-05-28 18:01:00,
2013-05-28 14:03:00,79.4,59.7,30.23,SSW,208,16.0,19.6,51,0.00,FEW,OVC,0.00,WeatherDisplay:10.37,2013-05-28 18:03:00,
2013-05-28 14:04:00,79.4,59.1,30.22,SSW,209,14.8,19.6,50,0.00,FEW,OVC,0.00,WeatherDisplay:10.37,2013-05-28 18:04:00,
2013-05-28 14:06:00,79.8,60.6,30.22,SSW,213,14.6,16.1,52,0.00,FEW,OVC,0.00,WeatherDisplay:10.37,2013-05-28 18:06:00,
2013-05-28 14:07:00,79.8,58.9,30.22,SW,215,14.0,16.1,49,0.00,FEW,OVC,0.00,WeatherDisplay:10.37,2013-05-28 18:07:00,
2013-05-28 14:10:00,79.6,59.3,30.22,WSW,238,11.3,14.0,50,0.00,FEW,OVC,0.00,WeatherDisplay:10.37,2013-05-28 18:10:00,
2013-05-28 14:11:00,79.8,59.5,30.22,WSW,244,12.1,15.0,50,0.00,FEW,OVC,0.00,WeatherDisplay:10.37,2013-05-28 18:11:00,
2013-05-28 14:12:00,79.8,59.5,30.22,SW,222,13.6,16.1,50,0.00,FEW,OVC,0.00,WeatherDisplay:10.37,2013-05-28 18:12:00,
2013-05-28 14:16:00,79.9,60.2,30.22,SW,227,4.1,4.6,51,0.00,FEW,OVC,0.00,WeatherDisplay:10.37,2013-05-28 18:16:00,
2013-05-28 14:18:00,80.3,60.5,30.22,SSW,197,15.6,20.7,51,0.00,FEW,OVC,0.00,WeatherDisplay:10.37,2013-05-28 18:18:00,
2013-05-28 14:19:00,80.3,60.0,30.22,SSW,211,15.5,18.4,50,0.00,FEW,OVC,0.00,WeatherDisplay:10.37,2013-05-28 18:19:00,
2013-05-28 14:22:00,80.1,59.8,30.22,SSW,206,13.1,17.3,50,0.00,FEW,OVC,0.00,WeatherDisplay:10.37,2013-05-28 18:22:00,
2013-05-28 14:23:00,80.3,60.5,30.22,SSE,167,10.7,15.0,51,0.00,FEW,OVC,0.00,WeatherDisplay:10.37,2013-05-28 18:23:00,
2013-05-28 14:26:00,80.7,62.5,30.22,South,189,18.2,25.3,54,0.00,FEW,OVC,0.00,WeatherDisplay:10.37,2013-05-28 18:26:00,
2013-05-28 14:27:00,80.7,60.3,30.22,South,180,13.1,16.1,50,0.00,FEW,OVC,0.00,WeatherDisplay:10.37,2013-05-28 18:27:00,
2013-05-28 14:28:00,80.9,61.1,30.22,SW,218,13.4,15.0,51,0.00,FEW,OVC,0.00,WeatherDisplay:10.37,2013-05-28 18:28:00,
2013-05-28 14:30:00,80.9,60.5,30.22,SW,219,11.7,15.0,50,0.00,FEW,OVC,0.00,WeatherDisplay:10.37,2013-05-28 18:30:00,
2013-05-28 14:33:00,80.9,58.8,30.22,SW,223,14.5,18.4,47,0.00,FEW,OVC,0.00,WeatherDisplay:10.37,2013-05-28 18:33:00,
2013-05-28 14:34:00,80.7,60.9,30.22,SSW,207,15.2,19.6,51,0.00,FEW,OVC,0.00,WeatherDisplay:10.37,2013-05-28 18:34:00,
2013-05-28 14:35:00,80.9,59.4,30.22,SSW,200,13.2,17.0,48,0.00,FEW,OVC,0.00,WeatherDisplay:10.37,2013-05-28 18:35:00,
2013-05-28 14:38:00,80.9,59.4,30.22,SSW,194,15.0,18.4,48,0.00,FEW,OVC,0.00,WeatherDisplay:10.37,2013-05-28 18:38:00,
2013-05-28 14:39:00,80.9,59.4,30.22,SSW,199,17.6,20.7,48,0.00,FEW,OVC,0.00,WeatherDisplay:10.37,2013-05-28 18:39:00,
2013-05-28 14:40:00,80.7,58.6,30.22,SSW,202,16.7,19.6,47,0.00,FEW,OVC,0.00,WeatherDisplay:10.37,2013-05-28 18:40:00,
2013-05-28 14:41:00,80.5,59.0,30.22,SSW,209,18.1,21.9,48,0.00,FEW,OVC,0.00,WeatherDisplay:10.37,2013-05-28 18:41:00,
2013-05-28 14:42:00,80.3,60.0,30.22,SSW,205,16.3,18.4,50,0.00,FEW,OVC,0.00,WeatherDisplay:10.37,2013-05-28 18:42:00,
2013-05-28 14:44:00,80.1,58.6,30.22,SSW,206,10.9,15.0,48,0.00,FEW,OVC,0.00,WeatherDisplay:10.37,2013-05-28 18:44:00,
2013-05-28 14:45:00,80.1,58.6,30.22,SSW,206,10.0,12.7,48,0.00,FEW,OVC,0.00,WeatherDisplay:10.37,2013-05-28 18:45:00,
2013-05-28 14:46:00,80.1,59.2,30.22,SW,214,13.6,17.3,49,0.00,FEW,OVC,0.00,WeatherDisplay:10.37,2013-05-28 18:46:00,
2013-05-28 14:49:00,80.7,60.3,30.22,SW,219,9.3,11.5,50,0.00,FEW,OVC,0.00,WeatherDisplay:10.37,2013-05-28 18:49:00,
2013-05-28 14:50:00,80.9,61.6,30.22,SSW,202,13.4,19.6,52,0.00,FEW,OVC,0.00,WeatherDisplay:10.37,2013-05-28 18:50:00,
2013-05-28 14:52:00,80.9,59.9,30.22,SSW,205,17.8,20.7,49,0.00,FEW,OVC,0.00,WeatherDisplay:10.37,2013-05-28 18:52:00,
2013-05-28 14:55:00,80.7,59.8,30.22,SSW,205,12.0,15.0,49,0.00,FEW,OVC,0.00,WeatherDisplay:10.37,2013-05-28 18:55:00,
2013-05-28 14:56:00,80.7,60.3,30.22,South,186,9.9,11.5,50,0.00,FEW,OVC,0.00,WeatherDisplay:10.37,2013-05-28 18:56:00,
2013-05-28 14:57:00,80.7,59.8,30.22,SSW,202,13.9,21.0,49,0.00,FEW,OVC,0.00,WeatherDisplay:10.37,2013-05-28 18:57:00,
2013-05-28 14:59:00,80.9,60.5,30.22,SW,223,14.3,20.7,50,0.00,FEW,OVC,0.00,WeatherDisplay:10.37,2013-05-28 18:59:00,
2013-05-28 15:02:00,80.7,60.9,30.22,SSW,192,11.7,14.0,51,0.00,FEW,OVC,0.00,WeatherDisplay:10.37,2013-05-28 19:02:00,
2013-05-28 15:03:00,80.7,60.9,30.22,SSW,210,18.5,24.2,51,0.00,FEW,OVC,0.00,WeatherDisplay:10.37,2013-05-28 19:03:00,
2013-05-28 15:04:00,80.7,60.9,30.22,SSW,205,16.3,20.7,51,0.00,FEW,OVC,0.00,WeatherDisplay:10.37,2013-05-28 19:04:00,
2013-05-28 15:05:00,80.5,60.7,30.21,SSW,213,12.7,16.1,51,0.00,FEW,OVC,0.00,WeatherDisplay:10.37,2013-05-28 19:05:00,
2013-05-28 15:07:00,79.9,59.6,30.21,SW,219,12.4,20.7,50,0.00,FEW,OVC,0.00,WeatherDisplay:10.37,2013-05-28 19:07:00,
2013-05-28 15:10:00,79.8,60.1,30.21,SSW,194,9.8,16.1,51,0.00,FEW,OVC,0.00,WeatherDisplay:10.37,2013-05-28 19:10:00,
2013-05-28 15:11:00,79.8,60.1,30.21,SSE,162,11.4,16.1,51,0.00,FEW,OVC,0.00,WeatherDisplay:10.37,2013-05-28 19:11:00,
2013-05-28 15:12:00,79.9,60.7,30.21,SSE,166,8.5,16.1,52,0.00,FEW,OVC,0.00,WeatherDisplay:10.37,2013-05-28 19:12:00,
2013-05-28 15:15:00,80.1,60.3,30.21,South,182,9.7,13.8,51,0.00,FEW,OVC,0.00,WeatherDisplay:10.37,2013-05-28 19:15:00,
2013-05-28 15:18:00,80.9,60.5,30.21,South,187,18.6,21.9,50,0.00,FEW,OVC,0.00,WeatherDisplay:10.37,2013-05-28 19:18:00,
2013-05-28 15:19:00,80.9,59.9,30.21,South,190,16.5,21.9,49,0.00,FEW,OVC,0.00,WeatherDisplay:10.37,2013-05-28 19:19:00,
2013-05-28 15:23:00,80.7,60.9,30.21,SSW,203,13.7,18.4,51,0.00,FEW,OVC,0.00,WeatherDisplay:10.37,2013-05-28 19:23:00,
2013-05-28 15:24:00,80.7,61.4,30.21,SSW,213,15.0,18.4,52,0.00,FEW,OVC,0.00,WeatherDisplay:10.37,2013-05-28 19:24:00,
2013-05-28 15:26:00,81.1,61.8,30.21,SSW,213,8.8,12.7,52,0.00,FEW,OVC,0.00,WeatherDisplay:10.37,2013-05-28 19:26:00,
2013-05-28 15:27:00,81.2,61.9,30.21,SW,215,8.5,11.5,52,0.00,FEW,OVC,0.00,WeatherDisplay:10.37,2013-05-28 19:27:00,
2013-05-28 15:30:00,81.6,60.6,30.21,SW,225,13.0,16.1,49,0.00,FEW,OVC,0.00,WeatherDisplay:10.37,2013-05-28 19:30:00,
2013-05-28 15:32:00,81.4,59.8,30.21,SSW,202,17.7,21.9,48,0.00,FEW,OVC,0.00,WeatherDisplay:10.37,2013-05-28 19:32:00,
2013-05-28 15:34:00,81.2,60.8,30.21,SSW,196,11.9,17.3,50,0.00,FEW,OVC,0.00,WeatherDisplay:10.37,2013-05-28 19:34:00,
2013-05-28 15:35:00,81.2,60.8,30.21,SSW,196,12.0,15.0,50,0.00,FEW,OVC,0.00,WeatherDisplay:10.37,2013-05-28 19:35:00,
2013-05-28 15:38:00,81.4,61.0,30.21,South,191,14.0,17.3,50,0.00,FEW,OVC,0.00,WeatherDisplay:10.37,2013-05-28 19:38:00,
2013-05-28 15:40:00,81.4,61.5,30.21,SW,221,10.9,18.4,51,0.00,FEW,OVC,0.00,WeatherDisplay:10.37,2013-05-28 19:40:00,
2013-05-28 15:41:00,81.2,61.4,30.21,SSW,202,10.9,16.1,51,0.00,FEW,OVC,0.00,WeatherDisplay:10.37,2013-05-28 19:41:00,
2013-05-28 15:43:00,81.2,61.4,30.21,SSW,208,9.8,11.5,51,0.00,FEW,OVC,0.00,WeatherDisplay:10.37,2013-05-28 19:43:00,
2013-05-28 15:44:00,81.2,61.4,30.21,SSW,205,11.2,15.0,51,0.00,FEW,OVC,0.00,WeatherDisplay:10.37,2013-05-28 19:44:00,
2013-05-28 15:45:00,81.2,61.4,30.21,South,183,13.6,18.4,51,0.00,FEW,OVC,0.00,WeatherDisplay:10.37,2013-05-28 19:45:00,
2013-05-28 15:46:00,81.1,60.1,30.21,South,169,11.4,18.4,49,0.00,FEW,OVC,0.00,WeatherDisplay:10.37,2013-05-28 19:46:00,
2013-05-28 15:47:00,81.1,60.7,30.21,SSW,201,10.0,12.7,50,0.00,FEW,OVC,0.00,WeatherDisplay:10.37,2013-05-28 19:47:00,
2013-05-28 15:49:00,81.1,60.1,30.21,SSW,209,15.5,19.6,49,0.00,FEW,OVC,0.00,WeatherDisplay:10.37,2013-05-28 19:49:00,
2013-05-28 15:52:00,80.9,59.9,30.21,SSW,209,12.6,16.1,49,0.00,FEW,OVC,0.00,WeatherDisplay:10.37,2013-05-28 19:52:00,
2013-05-28 15:54:00,80.9,61.1,30.21,SSE,162,4.7,10.4,51,0.00,FEW,OVC,0.00,WeatherDisplay:10.37,2013-05-28 19:54:00,
2013-05-28 15:56:00,81.1,61.8,30.21,South,188,13.6,17.3,52,0.00,FEW,OVC,0.00,WeatherDisplay:10.37,2013-05-28 19:56:00,
2013-05-28 15:59:00,81.1,62.3,30.21,SSE,167,12.6,19.6,53,0.00,FEW,OVC,0.00,WeatherDisplay:10.37,2013-05-28 19:59:00,
2013-05-28 16:00:00,81.2,63.0,30.21,South,182,11.1,15.0,54,0.00,FEW,OVC,0.00,WeatherDisplay:10.37,2013-05-28 20:00:00,
2013-05-28 16:04:00,81.1,61.3,30.21,SSE,157,10.5,15.0,51,0.00,BKN,OVC,0.00,WeatherDisplay:10.37,2013-05-28 20:04:00,
2013-05-28 16:06:00,80.9,61.1,30.20,South,189,10.9,15.0,51,0.00,BKN,OVC,0.00,WeatherDisplay:10.37,2013-05-28 20:06:00,
2013-05-28 16:07:00,80.9,61.6,30.20,SSW,195,12.9,18.4,52,0.00,BKN,OVC,0.00,WeatherDisplay:10.37,2013-05-28 20:07:00,
2013-05-28 16:10:00,81.1,60.7,30.20,South,180,18.0,21.0,50,0.00,BKN,OVC,0.00,WeatherDisplay:10.37,2013-05-28 20:10:00,
2013-05-28 16:12:00,80.7,60.3,30.20,SSW,206,16.6,19.6,50,0.00,BKN,OVC,0.00,WeatherDisplay:10.37,2013-05-28 20:12:00,
2013-05-28 16:13:00,80.5,61.3,30.20,SSE,157,14.4,18.4,52,0.00,BKN,OVC,0.00,WeatherDisplay:10.37,2013-05-28 20:13:00,
2013-05-28 16:15:00,80.5,61.8,30.20,SW,215,12.1,13.8,53,0.00,BKN,OVC,0.00,WeatherDisplay:10.37,2013-05-28 20:15:00,
2013-05-28 16:16:00,80.5,61.3,30.20,SSW,210,14.2,17.3,52,0.00,BKN,OVC,0.00,WeatherDisplay:10.37,2013-05-28 20:16:00,
2013-05-28 16:17:00,80.3,60.5,30.20,South,175,14.9,21.9,51,0.00,BKN,OVC,0.00,WeatherDisplay:10.37,2013-05-28 20:17:00,
2013-05-28 16:19:00,80.5,61.3,30.20,South,182,11.8,16.1,52,0.00,BKN,OVC,0.00,WeatherDisplay:10.37,2013-05-28 20:19:00,
2013-05-28 16:20:00,80.5,61.3,30.20,SSW,201,10.9,17.3,52,0.00,BKN,OVC,0.00,WeatherDisplay:10.37,2013-05-28 20:20:00,
2013-05-28 16:21:00,80.7,61.4,30.20,SSW,202,11.9,20.7,52,0.00,BKN,OVC,0.00,WeatherDisplay:10.37,2013-05-28 20:21:00,
2013-05-28 16:22:00,80.7,60.3,30.20,SSW,196,22.4,26.5,50,0.00,BKN,OVC,0.00,WeatherDisplay:10.37,2013-05-28 20:22:00,
2013-05-28 16:24:00,80.9,61.1,30.20,SSW,212,15.8,19.6,51,0.00,BKN,OVC,0.00,WeatherDisplay:10.37,2013-05-28 20:24:00,
2013-05-28 16:27:00,80.9,60.5,30.20,SSW,196,12.3,17.3,50,0.00,BKN,OVC,0.00,WeatherDisplay:10.37,2013-05-28 20:27:00,
2013-05-28 16:28:00,80.9,62.2,30.20,South,182,17.1,19.6,53,0.00,BKN,OVC,0.00,WeatherDisplay:10.37,2013-05-28 20:28:00,
2013-05-28 16:30:00,80.7,60.3,30.20,SSW,199,15.0,18.4,50,0.00,BKN,OVC,0.00,WeatherDisplay:10.37,2013-05-28 20:30:00,
2013-05-28 16:31:00,80.9,61.1,30.20,South,180,11.9,16.1,51,0.00,BKN,OVC,0.00,WeatherDisplay:10.37,2013-05-28 20:31:00,
2013-05-28 16:33:00,81.2,61.4,30.20,SSW,205,9.7,11.5,51,0.00,BKN,OVC,0.00,WeatherDisplay:10.37,2013-05-28 20:33:00,
2013-05-28 16:35:00,81.2,60.2,30.20,SSW,203,12.5,15.0,49,0.00,BKN,OVC,0.00,WeatherDisplay:10.37,2013-05-28 20:35:00,
2013-05-28 16:37:00,81.4,61.0,30.20,SW,223,10.8,15.0,50,0.00,BKN,OVC,0.00,WeatherDisplay:10.37,2013-05-28 20:37:00,
2013-05-28 16:39:00,81.2,61.9,30.20,SW,215,10.7,16.1,52,0.00,BKN,OVC,0.00,WeatherDisplay:10.37,2013-05-28 20:39:00,
2013-05-28 16:40:00,81.1,60.7,30.20,SSW,203,15.5,18.4,50,0.00,BKN,OVC,0.00,WeatherDisplay:10.37,2013-05-28 20:40:00,
2013-05-28 16:42:00,80.7,60.3,30.19,SSW,211,14.2,17.3,50,0.00,BKN,OVC,0.00,WeatherDisplay:10.37,2013-05-28 20:42:00,
2013-05-28 16:45:00,80.5,60.1,30.19,SW,216,12.6,19.6,50,0.00,BKN,OVC,0.00,WeatherDisplay:10.37,2013-05-28 20:45:00,
2013-05-28 16:47:00,80.3,60.5,30.19,SSW,205,13.7,18.4,51,0.00,BKN,OVC,0.00,WeatherDisplay:10.37,2013-05-28 20:47:00,
2013-05-28 16:48:00,80.3,61.1,30.19,SSW,211,11.6,16.1,52,0.00,BKN,OVC,0.00,WeatherDisplay:10.37,2013-05-28 20:48:00,
2013-05-28 16:49:00,80.1,60.3,30.19,SSW,200,11.3,12.7,51,0.00,BKN,OVC,0.00,WeatherDisplay:10.37,2013-05-28 20:49:00,
2013-05-28 16:51:00,80.1,60.9,30.19,SSW,194,12.7,15.0,52,0.00,BKN,OVC,0.00,WeatherDisplay:10.37,2013-05-28 20:51:00,
2013-05-28 16:52:00,80.1,60.9,30.19,SSW,207,7.7,11.5,52,0.00,BKN,OVC,0.00,WeatherDisplay:10.37,2013-05-28 20:52:00,
2013-05-28 16:53:00,80.3,61.6,30.19,SW,234,7.4,13.0,53,0.00,BKN,OVC,0.00,WeatherDisplay:10.37,2013-05-28 20:53:00,
2013-05-28 16:54:00,80.3,61.1,30.19,SSW,213,12.0,16.1,52,0.00,BKN,OVC,0.00,WeatherDisplay:10.37,2013-05-28 20:54:00,
2013-05-28 16:56:00,80.5,60.7,30.19,SSW,211,11.5,12.7,51,0.00,BKN,OVC,0.00,WeatherDisplay:10.37,2013-05-28 20:56:00,
2013-05-28 16:58:00,80.5,60.7,30.19,South,189,9.3,12.7,51,0.00,BKN,OVC,0.00,WeatherDisplay:10.37,2013-05-28 20:58:00,
2013-05-28 17:00:00,80.7,62.5,30.19,SSE,159,8.4,12.7,54,0.00,BKN,OVC,0.00,WeatherDisplay:10.37,2013-05-28 21:00:00,
2013-05-28 17:01:00,80.9,62.2,30.19,SSW,192,8.6,13.0,53,0.00,BKN,OVC,0.00,WeatherDisplay:10.37,2013-05-28 21:01:00,
2013-05-28 17:04:00,81.1,62.3,30.19,South,175,12.8,19.6,53,0.00,SCT,OVC,0.00,WeatherDisplay:10.37,2013-05-28 21:04:00,
2013-05-28 17:05:00,81.2,61.9,30.19,South,188,12.2,19.6,52,0.00,SCT,OVC,0.00,WeatherDisplay:10.37,2013-05-28 21:05:00,
2013-05-28 17:08:00,81.1,61.3,30.19,SSW,194,14.6,19.6,51,0.00,SCT,OVC,0.00,WeatherDisplay:10.37,2013-05-28 21:08:00,
2013-05-28 17:09:00,81.1,61.3,30.19,SSW,194,15.2,21.0,51,0.00,SCT,OVC,0.00,WeatherDisplay:10.37,2013-05-28 21:09:00,
2013-05-28 17:10:00,80.9,61.1,30.19,South,177,18.3,24.2,51,0.00,SCT,OVC,0.00,WeatherDisplay:10.37,2013-05-28 21:10:00,
2013-05-28 17:12:00,80.5,60.7,30.19,SSW,200,17.9,21.0,51,0.00,SCT,OVC,0.00,WeatherDisplay:10.37,2013-05-28 21:12:00,
2013-05-28 17:15:00,80.3,61.1,30.19,SSW,198,14.7,17.3,52,0.00,SCT,OVC,0.00,WeatherDisplay:10.37,2013-05-28 21:15:00,
2013-05-28 17:16:00,80.3,60.0,30.19,South,176,13.3,16.1,50,0.00,SCT,OVC,0.00,WeatherDisplay:10.37,2013-05-28 21:16:00,
2013-05-28 17:17:00,80.3,60.0,30.19,South,185,14.6,23.0,50,0.00,SCT,OVC,0.00,WeatherDisplay:10.37,2013-05-28 21:17:00,
2013-05-28 17:21:00,80.3,60.5,30.19,SSW,199,16.2,19.6,51,0.00,SCT,OVC,0.00,WeatherDisplay:10.37,2013-05-28 21:21:00,
2013-05-28 17:22:00,80.3,61.1,30.19,SSW,204,12.3,16.1,52,0.00,SCT,OVC,0.00,WeatherDisplay:10.37,2013-05-28 21:22:00,
2013-05-28 17:24:00,80.7,62.0,30.19,SSW,213,15.3,19.6,53,0.00,SCT,OVC,0.00,WeatherDisplay:10.37,2013-05-28 21:24:00,
2013-05-28 17:27:00,80.7,61.4,30.19,South,180,10.8,20.7,52,0.00,SCT,OVC,0.00,WeatherDisplay:10.37,2013-05-28 21:27:00,
2013-05-28 17:31:00,80.7,60.9,30.19,SSW,212,18.4,24.0,51,0.00,SCT,OVC,0.00,WeatherDisplay:10.37,2013-05-28 21:31:00,
2013-05-28 17:32:00,80.7,60.9,30.19,SSW,196,17.7,24.2,51,0.00,SCT,OVC,0.00,WeatherDisplay:10.37,2013-05-28 21:32:00,
2013-05-28 17:33:00,80.7,60.9,30.19,SSW,213,16.8,19.6,51,0.00,SCT,OVC,0.00,WeatherDisplay:10.37,2013-05-28 21:33:00,
2013-05-28 17:34:00,80.7,61.4,30.19,SW,230,13.6,17.3,52,0.00,SCT,OVC,0.00,WeatherDisplay:10.37,2013-05-28 21:34:00,
2013-05-28 17:37:00,80.7,61.4,30.19,SSW,205,10.2,12.7,52,0.00,SCT,OVC,0.00,WeatherDisplay:10.37,2013-05-28 21:37:00,
2013-05-28 17:38:00,80.7,61.4,30.19,SSW,210,9.5,11.5,52,0.00,SCT,OVC,0.00,WeatherDisplay:10.37,2013-05-28 21:38:00,
2013-05-28 17:40:00,80.7,61.4,30.19,SSW,199,11.5,15.0,52,0.00,SCT,OVC,0.00,WeatherDisplay:10.37,2013-05-28 21:40:00,
2013-05-28 17:42:00,80.7,60.9,30.19,South,171,14.7,19.6,51,0.00,SCT,OVC,0.00,WeatherDisplay:10.37,2013-05-28 21:42:00,
2013-05-28 17:43:00,80.5,60.7,30.19,South,186,18.9,20.7,51,0.00,SCT,OVC,0.00,WeatherDisplay:10.37,2013-05-28 21:43:00,
2013-05-28 17:45:00,80.5,60.7,30.19,SSW,195,14.0,24.0,51,0.00,SCT,OVC,0.00,WeatherDisplay:10.37,2013-05-28 21:45:00,
2013-05-28 17:47:00,80.5,61.3,30.19,South,175,9.7,11.5,52,0.00,SCT,OVC,0.00,WeatherDisplay:10.37,2013-05-28 21:47:00,
2013-05-28 17:49:00,80.5,61.8,30.19,SSW,192,15.4,20.7,53,0.00,SCT,OVC,0.00,WeatherDisplay:10.37,2013-05-28 21:49:00,
2013-05-28 17:51:00,80.5,61.3,30.19,SSW,209,11.4,16.0,52,0.00,SCT,OVC,0.00,WeatherDisplay:10.37,2013-05-28 21:51:00,
2013-05-28 17:52:00,80.5,61.3,30.19,SSW,202,16.6,19.6,52,0.00,SCT,OVC,0.00,WeatherDisplay:10.37,2013-05-28 21:52:00,
2013-05-28 17:55:00,80.3,61.1,30.19,SSW,209,14.9,19.6,52,0.00,SCT,OVC,0.00,WeatherDisplay:10.37,2013-05-28 21:55:00,
2013-05-28 17:56:00,80.1,60.9,30.19,SSW,196,11.7,19.6,52,0.00,SCT,OVC,0.00,WeatherDisplay:10.37,2013-05-28 21:56:00,
2013-05-28 17:57:00,80.1,60.9,30.19,SSW,199,14.4,18.4,52,0.00,SCT,OVC,0.00,WeatherDisplay:10.37,2013-05-28 21:57:00,
2013-05-28 17:58:00,80.1,60.3,30.19,SSW,200,13.0,16.1,51,0.00,SCT,OVC,0.00,WeatherDisplay:10.37,2013-05-28 21:58:00,
2013-05-28 17:59:00,80.1,60.9,30.19,SSW,210,17.8,21.9,52,0.00,SCT,OVC,0.00,WeatherDisplay:10.37,2013-05-28 21:59:00,
2013-05-28 18:01:00,80.1,60.3,30.19,SSW,200,17.5,19.6,51,0.00,SCT,OVC,0.00,WeatherDisplay:10.37,2013-05-28 22:01:00,
2013-05-28 18:03:00,80.1,60.3,30.19,SSW,192,14.1,23.0,51,0.00,SCT,OVC,0.00,WeatherDisplay:10.37,2013-05-28 22:03:00,
2013-05-28 18:04:00,80.1,60.3,30.19,SSW,198,14.0,18.4,51,0.00,SCT,OVC,0.00,WeatherDisplay:10.37,2013-05-28 22:04:00,
2013-05-28 18:05:00,80.1,60.3,30.19,SSW,209,14.3,18.4,51,0.00,SCT,OVC,0.00,WeatherDisplay:10.37,2013-05-28 22:05:00,
2013-05-28 18:06:00,80.1,60.9,30.19,SSW,192,11.3,15.0,52,0.00,SCT,OVC,0.00,WeatherDisplay:10.37,2013-05-28 22:06:00,
2013-05-28 18:07:00,80.1,61.4,30.19,SSW,195,13.1,16.1,53,0.00,SCT,OVC,0.00,WeatherDisplay:10.37,2013-05-28 22:07:00,
2013-05-28 18:10:00,80.1,62.0,30.19,South,179,16.1,23.0,54,0.00,SCT,OVC,0.00,WeatherDisplay:10.37,2013-05-28 22:10:00,
2013-05-28 18:11:00,80.1,62.5,30.19,South,169,15.0,20.7,55,0.00,SCT,OVC,0.00,WeatherDisplay:10.37,2013-05-28 22:11:00,
2013-05-28 18:12:00,79.9,62.3,30.19,South,187,14.7,19.6,55,0.00,SCT,OVC,0.00,WeatherDisplay:10.37,2013-05-28 22:12:00,
2013-05-28 18:13:00,79.9,62.8,30.19,South,175,15.5,18.4,56,0.00,SCT,OVC,0.00,WeatherDisplay:10.37,2013-05-28 22:13:00,
2013-05-28 18:15:00,79.8,62.8,30.19,South,186,17.0,24.0,56,0.00,SCT,OVC,0.00,WeatherDisplay:10.37,2013-05-28 22:15:00,
2013-05-28 18:16:00,79.8,62.7,30.19,South,173,12.7,20.7,56,0.00,SCT,OVC,0.00,WeatherDisplay:10.37,2013-05-28 22:16:00,
2013-05-28 18:18:00,79.6,63.0,30.19,South,173,10.6,18.4,57,0.00,SCT,OVC,0.00,WeatherDisplay:10.37,2013-05-28 22:18:00,
2013-05-28 18:19:00,79.6,63.0,30.19,South,176,10.3,15.0,57,0.00,SCT,OVC,0.00,WeatherDisplay:10.37,2013-05-28 22:19:00,
2013-05-28 18:20:00,79.4,62.8,30.18,South,170,9.7,17.3,57,0.00,SCT,OVC,0.00,WeatherDisplay:10.37,2013-05-28 22:20:00,
2013-05-28 18:21:00,79.4,63.3,30.18,SSW,201,9.9,14.0,58,0.00,SCT,OVC,0.00,WeatherDisplay:10.37,2013-05-28 22:21:00,
2013-05-28 18:24:00,79.2,62.7,30.18,South,176,12.6,16.1,57,0.00,SCT,OVC,0.00,WeatherDisplay:10.37,2013-05-28 22:24:00,
2013-05-28 18:25:00,79.2,62.7,30.18,SSW,201,13.1,19.6,57,0.00,SCT,OVC,0.00,WeatherDisplay:10.37,2013-05-28 22:25:00,
2013-05-28 18:27:00,79.4,62.8,30.18,South,182,10.4,15.0,57,0.00,SCT,OVC,0.00,WeatherDisplay:10.37,2013-05-28 22:27:00,
2013-05-28 18:29:00,79.4,62.8,30.18,SSW,198,14.4,19.6,57,0.00,SCT,OVC,0.00,WeatherDisplay:10.37,2013-05-28 22:29:00,
2013-05-28 18:30:00,79.6,62.0,30.18,SSW,200,16.3,19.6,55,0.00,SCT,OVC,0.00,WeatherDisplay:10.37,2013-05-28 22:30:00,
2013-05-28 18:32:00,79.6,62.0,30.18,South,177,15.0,19.6,55,0.00,SCT,OVC,0.00,WeatherDisplay:10.37,2013-05-28 22:32:00,
2013-05-28 18:34:00,79.6,62.0,30.18,South,180,14.9,18.4,55,0.00,SCT,OVC,0.00,WeatherDisplay:10.37,2013-05-28 22:34:00,
2013-05-28 18:35:00,79.6,62.5,30.18,South,182,6.9,13.8,56,0.00,SCT,OVC,0.00,WeatherDisplay:10.37,2013-05-28 22:35:00,
2013-05-28 18:37:00,79.8,62.7,30.19,South,187,11.9,16.1,56,0.00,SCT,OVC,0.00,WeatherDisplay:10.37,2013-05-28 22:37:00,
2013-05-28 18:39:00,79.8,62.2,30.19,SSW,198,14.3,15.0,55,0.00,SCT,OVC,0.00,WeatherDisplay:10.37,2013-05-28 22:39:00,
2013-05-28 18:40:00,79.8,62.7,30.19,South,188,12.4,18.4,56,0.00,SCT,OVC,0.00,WeatherDisplay:10.37,2013-05-28 22:40:00,
2013-05-28 18:43:00,79.6,62.5,30.19,South,180,11.7,14.0,56,0.00,SCT,OVC,0.00,WeatherDisplay:10.37,2013-05-28 22:43:00,
2013-05-28 18:45:00,79.6,63.0,30.19,South,182,8.9,11.5,57,0.00,SCT,OVC,0.00,WeatherDisplay:10.37,2013-05-28 22:45:00,
2013-05-28 18:46:00,79.6,62.5,30.19,SSW,193,14.0,16.1,56,0.00,SCT,OVC,0.00,WeatherDisplay:10.37,2013-05-28 22:46:00,
2013-05-28 18:50:00,79.4,62.8,30.19,South,177,8.9,13.8,57,0.00,SCT,OVC,0.00,WeatherDisplay:10.37,2013-05-28 22:50:00,
2013-05-28 18:51:00,79.4,62.8,30.19,South,182,9.9,11.5,57,0.00,SCT,OVC,0.00,WeatherDisplay:10.37,2013-05-28 22:51:00,
2013-05-28 18:52:00,79.4,62.8,30.19,SSW,202,12.3,15.0,57,0.00,SCT,OVC,0.00,WeatherDisplay:10.37,2013-05-28 22:52:00,
2013-05-28 18:55:00,79.4,62.8,30.19,South,180,10.5,15.0,57,0.00,SCT,OVC,0.00,WeatherDisplay:10.37,2013-05-28 22:55:00,
2013-05-28 18:56:00,79.4,62.8,30.19,SSW,205,10.3,15.0,57,0.00,SCT,OVC,0.00,WeatherDisplay:10.37,2013-05-28 22:56:00,
2013-05-28 18:57:00,79.4,63.3,30.19,SSW,198,11.4,17.0,58,0.00,SCT,OVC,0.00,WeatherDisplay:10.37,2013-05-28 22:57:00,
2013-05-28 19:00:00,79.5,63.4,30.19,South,183,6.0,17.0,58,0.00,SCT,OVC,0.00,WeatherDisplay:10.37,2013-05-28 23:00:00,
2013-05-28 19:02:00,79.4,62.8,30.19,South,180,7.5,13.8,57,0.00,SCT,OVC,0.00,WeatherDisplay:10.37,2013-05-28 23:02:00,
2013-05-28 19:03:00,79.6,63.5,30.19,South,183,4.6,10.4,58,0.00,SCT,OVC,0.00,WeatherDisplay:10.37,2013-05-28 23:03:00,
2013-05-28 19:06:00,79.6,63.5,30.19,South,184,7.9,11.5,58,0.00,SCT,OVC,0.00,WeatherDisplay:10.37,2013-05-28 23:06:00,
2013-05-28 19:07:00,79.4,62.8,30.19,SSE,164,5.4,11.5,57,0.00,SCT,OVC,0.00,WeatherDisplay:10.37,2013-05-28 23:07:00,
2013-05-28 19:08:00,79.4,62.8,30.19,South,177,9.1,13.8,57,0.00,SCT,OVC,0.00,WeatherDisplay:10.37,2013-05-28 23:08:00,
2013-05-28 19:09:00,79.4,62.8,30.19,SSW,196,7.8,12.0,57,0.00,SCT,OVC,0.00,WeatherDisplay:10.37,2013-05-28 23:09:00,
2013-05-28 19:13:00,79.0,63.0,30.19,SSE,168,8.5,11.5,58,0.00,SCT,OVC,0.00,WeatherDisplay:10.37,2013-05-28 23:13:00,
2013-05-28 19:14:00,79.0,63.0,30.19,SSW,194,8.0,12.7,58,0.00,SCT,OVC,0.00,WeatherDisplay:10.37,2013-05-28 23:14:00,
2013-05-28 19:16:00,79.0,63.0,30.19,South,185,8.1,10.4,58,0.00,SCT,OVC,0.00,WeatherDisplay:10.37,2013-05-28 23:16:00,
2013-05-28 19:19:00,79.0,63.0,30.19,SSE,161,5.6,9.2,58,0.00,SCT,OVC,0.00,WeatherDisplay:10.37,2013-05-28 23:19:00,
2013-05-28 19:20:00,79.0,63.4,30.19,South,179,6.8,12.7,59,0.00,SCT,OVC,0.00,WeatherDisplay:10.37,2013-05-28 23:20:00,
2013-05-28 19:24:00,78.6,62.6,30.19,South,178,7.7,18.4,58,0.00,SCT,OVC,0.00,WeatherDisplay:10.37,2013-05-28 23:24:00,
2013-05-28 19:25:00,78.6,62.6,30.19,South,178,7.7,11.5,58,0.00,SCT,OVC,0.00,WeatherDisplay:10.37,2013-05-28 23:25:00,
2013-05-28 19:26:00,78.6,63.1,30.19,SSE,167,4.7,9.2,59,0.00,SCT,OVC,0.00,WeatherDisplay:10.37,2013-05-28 23:26:00,
2013-05-28 19:27:00,78.6,63.1,30.19,South,173,4.5,6.9,59,0.00,SCT,OVC,0.00,WeatherDisplay:10.37,2013-05-28 23:27:00,
2013-05-28 19:30:00,78.6,63.1,30.19,South,191,9.5,13.8,59,0.00,SCT,OVC,0.00,WeatherDisplay:10.37,2013-05-28 23:30:00,
2013-05-28 19:31:00,78.6,63.1,30.19,South,189,9.7,11.5,59,0.00,SCT,OVC,0.00,WeatherDisplay:10.37,2013-05-28 23:31:00,
2013-05-28 19:32:00,78.5,63.0,30.19,SSE,163,6.5,11.5,59,0.00,SCT,OVC,0.00,WeatherDisplay:10.37,2013-05-28 23:32:00,
2013-05-28 19:33:00,78.5,63.0,30.19,SSE,162,7.0,10.4,59,0.00,SCT,OVC,0.00,WeatherDisplay:10.37,2013-05-28 23:33:00,
2013-05-28 19:36:00,78.3,63.3,30.19,South,186,10.4,18.0,60,0.00,SCT,OVC,0.00,WeatherDisplay:10.37,2013-05-28 23:36:00,
2013-05-28 19:37:00,78.3,63.3,30.19,SSE,165,11.0,18.4,60,0.00,SCT,OVC,0.00,WeatherDisplay:10.37,2013-05-28 23:37:00,
2013-05-28 19:38:00,78.3,63.3,30.19,SSE,165,7.7,11.5,60,0.00,SCT,OVC,0.00,WeatherDisplay:10.37,2013-05-28 23:38:00,
2013-05-28 19:39:00,78.3,63.3,30.19,SSE,167,8.4,11.5,60,0.00,SCT,OVC,0.00,WeatherDisplay:10.37,2013-05-28 23:39:00,
2013-05-28 19:41:00,78.1,63.1,30.19,South,188,8.7,11.5,60,0.00,SCT,OVC,0.00,WeatherDisplay:10.37,2013-05-28 23:41:00,
2013-05-28 19:42:00,78.1,63.1,30.19,SSE,167,8.6,15.0,60,0.00,SCT,OVC,0.00,WeatherDisplay:10.37,2013-05-28 23:42:00,
2013-05-28 19:44:00,77.9,63.4,30.19,South,180,6.9,13.8,61,0.00,SCT,OVC,0.00,WeatherDisplay:10.37,2013-05-28 23:44:00,
2013-05-28 19:45:00,77.9,63.4,30.19,South,180,6.3,10.4,61,0.00,SCT,OVC,0.00,WeatherDisplay:10.37,2013-05-28 23:45:00,
2013-05-28 19:48:00,77.7,63.2,30.19,SSW,194,9.2,13.8,61,0.00,SCT,OVC,0.00,WeatherDisplay:10.37,2013-05-28 23:48:00,
2013-05-28 19:50:00,77.7,63.2,30.19,South,171,7.4,12.7,61,0.00,SCT,OVC,0.00,WeatherDisplay:10.37,2013-05-28 23:50:00,
2013-05-28 19:52:00,77.6,63.5,30.19,South,178,6.3,11.5,62,0.00,SCT,OVC,0.00,WeatherDisplay:10.37,2013-05-28 23:52:00,
2013-05-28 19:53:00,77.6,63.5,30.19,SSW,193,7.2,12.0,62,0.00,SCT,OVC,0.00,WeatherDisplay:10.37,2013-05-28 23:53:00,
2013-05-28 19:54:00,77.6,63.5,30.19,South,190,9.3,12.0,62,0.00,SCT,OVC,0.00,WeatherDisplay:10.37,2013-05-28 23:54:00,
2013-05-28 19:57:00,77.6,63.1,30.19,SSW,200,10.0,16.1,61,0.00,SCT,OVC,0.00,WeatherDisplay:10.37,2013-05-28 23:57:00,
2013-05-28 19:58:00,77.4,63.4,30.19,SSW,194,10.7,12.7,62,0.00,SCT,OVC,0.00,WeatherDisplay:10.37,2013-05-28 23:58:00,
2013-05-28 20:00:00,77.4,63.4,30.18,SSW,194,9.1,14.0,62,0.00,SCT,OVC,0.00,WeatherDisplay:10.37,2013-05-29 00:00:00,
2013-05-28 20:01:00,77.4,63.4,30.18,South,178,11.0,13.8,62,0.00,SCT,OVC,0.00,WeatherDisplay:10.37,2013-05-29 00:01:00,
2013-05-28 20:03:00,77.2,63.2,30.18,South,186,7.6,12.0,62,0.00,FEW,OVC,0.00,WeatherDisplay:10.37,2013-05-29 00:03:00,
2013-05-28 20:06:00,77.0,63.0,30.19,South,171,10.6,13.8,62,0.00,FEW,OVC,0.00,WeatherDisplay:10.37,2013-05-29 00:06:00,
2013-05-28 20:07:00,77.0,63.0,30.19,South,179,9.6,13.8,62,0.00,FEW,OVC,0.00,WeatherDisplay:10.37,2013-05-29 00:07:00,
2013-05-28 20:09:00,77.0,63.0,30.19,South,185,7.9,12.7,62,0.00,FEW,OVC,0.00,WeatherDisplay:10.37,2013-05-29 00:09:00,
2013-05-28 20:10:00,76.8,62.8,30.19,South,182,10.2,13.8,62,0.00,FEW,OVC,0.00,WeatherDisplay:10.37,2013-05-29 00:10:00,
2013-05-28 20:11:00,76.8,63.2,30.19,South,175,9.9,12.7,63,0.00,FEW,OVC,0.00,WeatherDisplay:10.37,2013-05-29 00:11:00,
2013-05-28 20:12:00,76.8,63.2,30.19,South,177,10.7,13.8,63,0.00,FEW,OVC,0.00,WeatherDisplay:10.37,2013-05-29 00:12:00,
2013-05-28 20:13:00,76.7,63.2,30.19,South,180,6.2,12.7,63,0.00,FEW,OVC,0.00,WeatherDisplay:10.37,2013-05-29 00:13:00,
2013-05-28 20:16:00,76.5,63.4,30.19,South,184,6.3,11.5,64,0.00,FEW,OVC,0.00,WeatherDisplay:10.37,2013-05-29 00:16:00,
2013-05-28 20:17:00,76.5,63.4,30.19,South,187,8.9,11.5,64,0.00,FEW,OVC,0.00,WeatherDisplay:10.37,2013-05-29 00:17:00,
2013-05-28 20:18:00,76.3,63.2,30.19,SSE,163,9.1,11.5,64,0.00,FEW,OVC,0.00,WeatherDisplay:10.37,2013-05-29 00:18:00,
2013-05-28 20:19:00,76.3,63.2,30.19,SSW,200,7.0,13.8,64,0.00,FEW,OVC,0.00,WeatherDisplay:10.37,2013-05-29 00:19:00,
2013-05-28 20:22:00,76.1,63.0,30.19,South,170,9.1,13.8,64,0.00,FEW,OVC,0.00,WeatherDisplay:10.37,2013-05-29 00:22:00,
2013-05-28 20:23:00,76.1,63.0,30.19,South,184,9.6,13.8,64,0.00,FEW,OVC,0.00,WeatherDisplay:10.37,2013-05-29 00:23:00,
2013-05-28 20:24:00,76.1,63.0,30.19,South,185,7.2,11.5,64,0.00,FEW,OVC,0.00,WeatherDisplay:10.37,2013-05-29 00:24:00,
2013-05-28 20:26:00,76.1,63.0,30.19,SSW,194,9.6,11.5,64,0.00,FEW,OVC,0.00,WeatherDisplay:10.37,2013-05-29 00:26:00,
2013-05-28 20:30:00,76.0,63.4,30.19,South,181,6.5,15.0,65,0.00,FEW,OVC,0.00,WeatherDisplay:10.37,2013-05-29 00:30:00,
2013-05-28 20:31:00,75.8,63.2,30.19,South,182,6.3,13.0,65,0.00,FEW,OVC,0.00,WeatherDisplay:10.37,2013-05-29 00:31:00,
2013-05-28 20:32:00,75.8,63.2,30.19,South,188,9.8,12.7,65,0.00,FEW,OVC,0.00,WeatherDisplay:10.37,2013-05-29 00:32:00,
2013-05-28 20:33:00,75.8,63.2,30.19,SSW,195,9.5,11.5,65,0.00,FEW,OVC,0.00,WeatherDisplay:10.37,2013-05-29 00:33:00,
2013-05-28 20:35:00,75.8,63.2,30.19,South,183,12.6,15.0,65,0.00,FEW,OVC,0.00,WeatherDisplay:10.37,2013-05-29 00:35:00,
2013-05-28 20:36:00,75.8,63.2,30.19,South,182,9.9,16.1,65,0.00,FEW,OVC,0.00,WeatherDisplay:10.37,2013-05-29 00:36:00,
2013-05-28 20:38:00,75.6,63.0,30.19,South,187,8.4,11.5,65,0.00,FEW,OVC,0.00,WeatherDisplay:10.37,2013-05-29 00:38:00,
2013-05-28 20:41:00,75.4,62.8,30.19,South,175,9.6,13.8,65,0.00,FEW,OVC,0.00,WeatherDisplay:10.37,2013-05-29 00:41:00,
2013-05-28 20:42:00,75.4,62.8,30.19,South,181,9.3,13.8,65,0.00,FEW,OVC,0.00,WeatherDisplay:10.37,2013-05-29 00:42:00,
2013-05-28 20:43:00,75.4,62.8,30.19,South,183,7.7,11.5,65,0.00,FEW,OVC,0.00,WeatherDisplay:10.37,2013-05-29 00:43:00,
2013-05-28 20:45:00,75.3,62.7,30.19,South,172,8.6,12.7,65,0.00,FEW,OVC,0.00,WeatherDisplay:10.37,2013-05-29 00:45:00,
2013-05-28 20:47:00,75.3,63.2,30.19,South,179,7.9,11.5,66,0.00,FEW,OVC,0.00,WeatherDisplay:10.37,2013-05-29 00:47:00,
2013-05-28 20:49:00,75.1,63.0,30.19,South,181,8.1,11.5,66,0.00,FEW,OVC,0.00,WeatherDisplay:10.37,2013-05-29 00:49:00,
2013-05-28 20:50:00,75.1,63.0,30.18,SSW,194,8.8,11.5,66,0.00,FEW,OVC,0.00,WeatherDisplay:10.37,2013-05-29 00:50:00,
2013-05-28 20:53:00,75.1,63.0,30.18,South,175,9.1,13.8,66,0.00,FEW,OVC,0.00,WeatherDisplay:10.37,2013-05-29 00:53:00,
2013-05-28 20:55:00,75.1,63.0,30.18,South,174,6.8,11.5,66,0.00,FEW,OVC,0.00,WeatherDisplay:10.37,2013-05-29 00:55:00,
2013-05-28 20:57:00,74.9,62.8,30.18,South,184,8.4,12.0,66,0.00,FEW,OVC,0.00,WeatherDisplay:10.37,2013-05-29 00:57:00,
2013-05-28 21:00:00,74.7,63.0,30.18,South,186,10.4,13.8,67,0.00,FEW,OVC,0.00,WeatherDisplay:10.37,2013-05-29 01:00:00,
2013-05-28 21:01:00,74.7,63.0,30.18,South,180,12.0,17.0,67,0.00,FEW,OVC,0.00,WeatherDisplay:10.37,2013-05-29 01:01:00,
2013-05-28 21:04:00,74.6,62.9,30.18,South,188,8.0,12.0,67,0.00,CLR,OVC,0.00,WeatherDisplay:10.37,2013-05-29 01:04:00,
2013-05-28 21:07:00,74.4,62.7,30.18,South,180,9.9,17.3,67,0.00,CLR,OVC,0.00,WeatherDisplay:10.37,2013-05-29 01:07:00,
2013-05-28 21:09:00,74.4,63.1,30.18,South,175,12.1,15.0,68,0.00,CLR,OVC,0.00,WeatherDisplay:10.37,2013-05-29 01:09:00,
2013-05-28 21:10:00,74.4,62.7,30.18,South,175,9.3,17.3,67,0.00,CLR,OVC,0.00,WeatherDisplay:10.37,2013-05-29 01:10:00,
2013-05-28 21:11:00,74.4,62.7,30.18,South,171,10.1,16.1,67,0.00,CLR,OVC,0.00,WeatherDisplay:10.37,2013-05-29 01:11:00,
2013-05-28 21:12:00,74.4,62.7,30.18,South,180,8.9,15.0,67,0.00,CLR,OVC,0.00,WeatherDisplay:10.37,2013-05-29 01:12:00,
2013-05-28 21:14:00,74.4,62.7,30.18,South,187,8.7,11.5,67,0.00,CLR,OVC,0.00,WeatherDisplay:10.37,2013-05-29 01:14:00,
2013-05-28 21:15:00,74.2,62.5,30.18,South,184,10.2,11.5,67,0.00,CLR,OVC,0.00,WeatherDisplay:10.37,2013-05-29 01:15:00,
2013-05-28 21:17:00,74.4,62.7,30.18,South,178,9.2,12.7,67,0.00,CLR,OVC,0.00,WeatherDisplay:10.37,2013-05-29 01:17:00,
2013-05-28 21:18:00,74.4,62.7,30.18,South,174,8.5,13.8,67,0.00,CLR,OVC,0.00,WeatherDisplay:10.37,2013-05-29 01:18:00,
2013-05-28 21:19:00,74.4,62.7,30.18,South,184,7.5,10.0,67,0.00,CLR,OVC,0.00,WeatherDisplay:10.37,2013-05-29 01:19:00,
2013-05-28 21:21:00,74.2,62.5,30.18,South,189,9.3,13.8,67,0.00,CLR,OVC,0.00,WeatherDisplay:10.37,2013-05-29 01:21:00,
2013-05-28 21:22:00,74.4,62.7,30.18,South,190,8.9,11.5,67,0.00,CLR,OVC,0.00,WeatherDisplay:10.37,2013-05-29 01:22:00,
2013-05-28 21:23:00,74.4,62.7,30.18,South,171,6.8,10.4,67,0.00,CLR,OVC,0.00,WeatherDisplay:10.37,2013-05-29 01:23:00,
2013-05-28 21:24:00,74.4,62.7,30.18,South,190,7.0,10.4,67,0.00,CLR,OVC,0.00,WeatherDisplay:10.37,2013-05-29 01:24:00,
2013-05-28 21:25:00,74.4,62.7,30.18,South,175,9.0,12.7,67,0.00,CLR,OVC,0.00,WeatherDisplay:10.37,2013-05-29 01:25:00,
2013-05-28 21:26:00,74.4,62.7,30.18,South,190,10.8,13.8,67,0.00,CLR,OVC,0.00,WeatherDisplay:10.37,2013-05-29 01:26:00,
2013-05-28 21:27:00,74.6,62.5,30.18,SSW,197,6.9,13.8,66,0.00,CLR,OVC,0.00,WeatherDisplay:10.37,2013-05-29 01:27:00,
2013-05-28 21:28:00,74.4,62.7,30.18,South,189,4.6,10.4,67,0.00,CLR,OVC,0.00,WeatherDisplay:10.37,2013-05-29 01:28:00,
2013-05-28 21:30:00,74.2,62.6,30.18,South,189,6.0,14.0,67,0.00,CLR,OVC,0.00,WeatherDisplay:10.37,2013-05-29 01:30:00,
2013-05-28 21:32:00,74.2,62.5,30.18,South,178,6.8,9.2,67,0.00,CLR,OVC,0.00,WeatherDisplay:10.37,2013-05-29 01:32:00,
2013-05-28 21:34:00,74.2,62.5,30.18,SW,227,4.7,6.9,67,0.00,CLR,OVC,0.00,WeatherDisplay:10.37,2013-05-29 01:34:00,
2013-05-28 21:36:00,74.2,62.5,30.18,South,186,6.0,11.5,67,0.00,CLR,OVC,0.00,WeatherDisplay:10.37,2013-05-29 01:36:00,
2013-05-28 21:38:00,74.0,62.3,30.19,South,189,7.2,11.5,67,0.00,CLR,OVC,0.00,WeatherDisplay:10.37,2013-05-29 01:38:00,
2013-05-28 21:40:00,74.0,62.3,30.19,South,181,7.1,10.4,67,0.00,CLR,OVC,0.00,WeatherDisplay:10.37,2013-05-29 01:40:00,
2013-05-28 21:41:00,74.0,62.3,30.19,SSW,202,7.8,13.0,67,0.00,CLR,OVC,0.00,WeatherDisplay:10.37,2013-05-29 01:41:00,
2013-05-28 21:43:00,73.9,62.7,30.19,SSW,196,6.6,9.2,68,0.00,CLR,OVC,0.00,WeatherDisplay:10.37,2013-05-29 01:43:00,
2013-05-28 21:45:00,73.9,62.7,30.19,SSW,196,5.1,6.9,68,0.00,CLR,OVC,0.00,WeatherDisplay:10.37,2013-05-29 01:45:00,
2013-05-28 21:46:00,73.7,62.5,30.19,SSW,196,5.2,5.8,68,0.00,CLR,OVC,0.00,WeatherDisplay:10.37,2013-05-29 01:46:00,
2013-05-28 21:50:00,73.5,62.3,30.19,South,188,8.7,11.5,68,0.00,CLR,OVC,0.00,WeatherDisplay:10.37,2013-05-29 01:50:00,
2013-05-28 21:51:00,73.5,62.7,30.19,South,190,5.1,11.5,69,0.00,CLR,OVC,0.00,WeatherDisplay:10.37,2013-05-29 01:51:00,
2013-05-28 21:52:00,73.5,62.7,30.19,South,186,7.1,10.0,69,0.00,CLR,OVC,0.00,WeatherDisplay:10.37,2013-05-29 01:52:00,
2013-05-28 21:53:00,73.5,62.3,30.19,South,184,6.4,10.4,68,0.00,CLR,OVC,0.00,WeatherDisplay:10.37,2013-05-29 01:53:00,
2013-05-28 21:55:00,73.3,62.5,30.19,SSW,194,4.9,6.9,69,0.00,CLR,OVC,0.00,WeatherDisplay:10.37,2013-05-29 01:55:00,
2013-05-28 21:58:00,73.3,62.5,30.19,SSW,193,8.3,11.5,69,0.00,CLR,OVC,0.00,WeatherDisplay:10.37,2013-05-29 01:58:00,
2013-05-28 21:59:00,73.3,62.5,30.19,SSW,194,7.9,10.4,69,0.00,CLR,OVC,0.00,WeatherDisplay:10.37,2013-05-29 01:59:00,
2013-05-28 22:02:00,73.3,62.5,30.19,South,190,4.8,10.4,69,0.00,CLR,OVC,0.00,WeatherDisplay:10.37,2013-05-29 02:02:00,
2013-05-28 22:03:00,73.3,62.5,30.19,South,191,5.7,9.0,69,0.00,CLR,OVC,0.00,WeatherDisplay:10.37,2013-05-29 02:03:00,
2013-05-28 22:04:00,73.3,62.5,30.19,SSW,198,6.9,10.4,69,0.00,CLR,OVC,0.00,WeatherDisplay:10.37,2013-05-29 02:04:00,
2013-05-28 22:06:00,73.5,62.7,30.19,South,190,4.6,5.8,69,0.00,CLR,OVC,0.00,WeatherDisplay:10.37,2013-05-29 02:06:00,
2013-05-28 22:10:00,73.3,62.5,30.19,SSW,200,6.0,9.2,69,0.00,CLR,OVC,0.00,WeatherDisplay:10.37,2013-05-29 02:10:00,
2013-05-28 22:12:00,73.3,62.5,30.19,South,174,5.6,9.2,69,0.00,CLR,OVC,0.00,WeatherDisplay:10.37,2013-05-29 02:12:00,
2013-05-28 22:13:00,73.3,62.5,30.19,SSW,192,8.2,12.7,69,0.00,CLR,OVC,0.00,WeatherDisplay:10.37,2013-05-29 02:13:00,
2013-05-28 22:15:00,73.3,62.5,30.19,SSW,193,7.0,13.0,69,0.00,CLR,OVC,0.00,WeatherDisplay:10.37,2013-05-29 02:15:00,
2013-05-28 22:17:00,73.3,62.5,30.19,South,189,13.1,15.0,69,0.00,CLR,OVC,0.00,WeatherDisplay:10.37,2013-05-29 02:17:00,
2013-05-28 22:19:00,73.3,62.5,30.19,South,190,6.9,10.4,69,0.00,CLR,OVC,0.00,WeatherDisplay:10.37,2013-05-29 02:19:00,
2013-05-28 22:20:00,73.2,62.4,30.19,South,191,6.1,10.4,69,0.00,CLR,OVC,0.00,WeatherDisplay:10.37,2013-05-29 02:20:00,
2013-05-28 22:21:00,73.2,62.8,30.21,SSW,193,7.5,7.5,70,0.00,CLR,OVC,0.00,WeatherDisplay:10.37,2013-05-29 02:21:00,
2013-05-28 22:22:00,73.2,62.8,30.20,SSW,192,9.6,15.0,70,0.00,CLR,OVC,0.00,WeatherDisplay:10.37,2013-05-29 02:22:00,
2013-05-28 22:24:00,73.2,62.8,30.20,South,170,11.0,13.8,70,0.00,CLR,OVC,0.00,WeatherDisplay:10.37,2013-05-29 02:24:00,
2013-05-28 22:27:00,73.2,62.8,30.20,South,186,6.2,13.8,70,0.00,CLR,OVC,0.00,WeatherDisplay:10.37,2013-05-29 02:27:00,
2013-05-28 22:28:00,73.2,62.8,30.20,South,185,8.7,11.5,70,0.00,CLR,OVC,0.00,WeatherDisplay:10.37,2013-05-29 02:28:00,
2013-05-28 22:30:00,73.2,62.8,30.20,South,182,9.0,15.0,70,0.00,CLR,OVC,0.00,WeatherDisplay:10.37,2013-05-29 02:30:00,
2013-05-28 22:31:00,73.2,62.8,30.20,South,186,7.2,11.5,70,0.00,CLR,OVC,0.00,WeatherDisplay:10.37,2013-05-29 02:31:00,
2013-05-28 22:34:00,73.2,62.8,30.20,South,183,7.0,11.5,70,0.00,CLR,OVC,0.00,WeatherDisplay:10.37,2013-05-29 02:34:00,
2013-05-28 22:35:00,73.0,62.6,30.21,SSW,194,8.8,11.5,70,0.00,CLR,OVC,0.00,WeatherDisplay:10.37,2013-05-29 02:35:00,
2013-05-28 22:36:00,73.0,62.6,30.21,South,175,7.0,15.0,70,0.00,CLR,OVC,0.00,WeatherDisplay:10.37,2013-05-29 02:36:00,
2013-05-28 22:37:00,73.0,62.6,30.21,SSE,167,5.8,10.4,70,0.00,CLR,OVC,0.00,WeatherDisplay:10.37,2013-05-29 02:37:00,
2013-05-28 22:38:00,73.0,62.6,30.21,SSW,194,8.3,10.4,70,0.00,CLR,OVC,0.00,WeatherDisplay:10.37,2013-05-29 02:38:00,
2013-05-28 22:39:00,73.0,62.6,30.21,SSW,193,7.1,11.5,70,0.00,CLR,OVC,0.00,WeatherDisplay:10.37,2013-05-29 02:39:00,
2013-05-28 22:41:00,73.0,63.0,30.21,South,183,6.4,11.5,71,0.00,CLR,OVC,0.00,WeatherDisplay:10.37,2013-05-29 02:41:00,
2013-05-28 22:42:00,73.0,63.0,30.21,South,187,6.3,11.5,71,0.00,CLR,OVC,0.00,WeatherDisplay:10.37,2013-05-29 02:42:00,
2013-05-28 22:43:00,73.0,63.0,30.21,South,183,9.2,13.8,71,0.00,CLR,OVC,0.00,WeatherDisplay:10.37,2013-05-29 02:43:00,
2013-05-28 22:44:00,73.0,63.0,30.21,SSW,199,10.4,12.7,71,0.00,CLR,OVC,0.00,WeatherDisplay:10.37,2013-05-29 02:44:00,
2013-05-28 22:47:00,72.8,62.8,30.21,South,184,10.7,12.7,71,0.00,CLR,OVC,0.00,WeatherDisplay:10.37,2013-05-29 02:47:00,
2013-05-28 22:48:00,72.8,62.8,30.21,South,188,8.8,12.7,71,0.00,CLR,OVC,0.00,WeatherDisplay:10.37,2013-05-29 02:48:00,
2013-05-28 22:49:00,72.8,62.8,30.21,SSW,209,5.8,9.2,71,0.00,CLR,OVC,0.00,WeatherDisplay:10.37,2013-05-29 02:49:00,
2013-05-28 22:50:00,72.8,62.8,30.21,South,190,11.9,17.3,71,0.00,CLR,OVC,0.00,WeatherDisplay:10.37,2013-05-29 02:50:00,
2013-05-28 22:54:00,72.8,62.8,30.21,SSW,192,14.2,19.6,71,0.00,CLR,OVC,0.00,WeatherDisplay:10.37,2013-05-29 02:54:00,
2013-05-28 22:55:00,72.8,63.2,30.21,SSW,195,15.6,18.4,72,0.00,CLR,OVC,0.00,WeatherDisplay:10.37,2013-05-29 02:55:00,
2013-05-28 22:57:00,73.0,63.4,30.21,South,176,13.2,19.6,72,0.00,CLR,OVC,0.00,WeatherDisplay:10.37,2013-05-29 02:57:00,
2013-05-28 22:59:00,72.8,63.2,30.21,South,180,10.6,12.7,72,0.00,CLR,OVC,0.00,WeatherDisplay:10.37,2013-05-29 02:59:00,
2013-05-28 23:00:00,72.8,63.2,30.21,South,173,13.3,16.0,72,0.00,CLR,OVC,0.00,WeatherDisplay:10.37,2013-05-29 03:00:00,
2013-05-28 23:04:00,72.7,63.5,30.21,SSE,163,10.2,13.8,73,0.00,CLR,OVC,0.00,WeatherDisplay:10.37,2013-05-29 03:04:00,
2013-05-28 23:05:00,72.7,63.5,30.21,South,191,10.8,13.8,73,0.00,CLR,OVC,0.00,WeatherDisplay:10.37,2013-05-29 03:05:00,
2013-05-28 23:06:00,72.5,63.4,30.21,SSW,196,11.0,16.0,73,0.00,CLR,OVC,0.00,WeatherDisplay:10.37,2013-05-29 03:06:00,
2013-05-28 23:07:00,72.5,63.4,30.21,South,183,12.9,18.4,73,0.00,CLR,OVC,0.00,WeatherDisplay:10.37,2013-05-29 03:07:00,
2013-05-28 23:09:00,72.5,63.0,30.21,South,169,12.4,17.3,72,0.00,CLR,OVC,0.00,WeatherDisplay:10.37,2013-05-29 03:09:00,
2013-05-28 23:11:00,72.5,63.4,30.21,South,180,10.4,19.6,73,0.00,CLR,OVC,0.00,WeatherDisplay:10.37,2013-05-29 03:11:00,
2013-05-28 23:13:00,72.5,63.4,30.21,South,179,14.7,20.7,73,0.00,CLR,OVC,0.00,WeatherDisplay:10.37,2013-05-29 03:13:00,
2013-05-28 23:14:00,72.5,63.4,30.21,South,190,10.5,15.0,73,0.00,CLR,OVC,0.00,WeatherDisplay:10.37,2013-05-29 03:14:00,
2013-05-28 23:15:00,72.5,63.4,30.21,South,184,13.9,18.4,73,0.00,CLR,OVC,0.00,WeatherDisplay:10.37,2013-05-29 03:15:00,
2013-05-28 23:19:00,72.3,63.2,30.20,SSW,197,11.5,14.0,73,0.00,CLR,OVC,0.00,WeatherDisplay:10.37,2013-05-29 03:19:00,
2013-05-28 23:20:00,72.3,63.2,30.20,South,182,10.7,13.8,73,0.00,CLR,OVC,0.00,WeatherDisplay:10.37,2013-05-29 03:20:00,
2013-05-28 23:21:00,72.3,63.2,30.20,SSW,197,11.4,17.3,73,0.00,CLR,OVC,0.00,WeatherDisplay:10.37,2013-05-29 03:21:00,
2013-05-28 23:24:00,72.1,63.4,30.20,SSW,196,11.7,16.1,74,0.00,CLR,OVC,0.00,WeatherDisplay:10.37,2013-05-29 03:24:00,
2013-05-28 23:26:00,72.1,63.4,30.20,South,172,9.6,16.1,74,0.00,CLR,OVC,0.00,WeatherDisplay:10.37,2013-05-29 03:26:00,
2013-05-28 23:27:00,72.0,63.3,30.20,South,188,13.0,15.0,74,0.00,CLR,OVC,0.00,WeatherDisplay:10.37,2013-05-29 03:27:00,
2013-05-28 23:28:00,72.0,63.3,30.20,South,182,12.4,24.0,74,0.00,CLR,OVC,0.00,WeatherDisplay:10.37,2013-05-29 03:28:00,
2013-05-28 23:30:00,72.1,63.4,30.20,South,187,14.2,19.6,74,0.00,CLR,OVC,0.00,WeatherDisplay:10.37,2013-05-29 03:30:00,
2013-05-28 23:31:00,72.1,63.4,30.20,South,184,13.4,16.1,74,0.00,CLR,OVC,0.00,WeatherDisplay:10.37,2013-05-29 03:31:00,
2013-05-28 23:32:00,72.1,63.4,30.20,South,190,12.7,18.4,74,0.00,CLR,OVC,0.00,WeatherDisplay:10.37,2013-05-29 03:32:00,
2013-05-28 23:33:00,72.1,63.4,30.20,SSW,192,11.3,15.0,74,0.00,CLR,OVC,0.00,WeatherDisplay:10.37,2013-05-29 03:33:00,
2013-05-28 23:35:00,72.1,63.4,30.21,South,188,12.7,16.1,74,0.00,CLR,OVC,0.00,WeatherDisplay:10.37,2013-05-29 03:35:00,
2013-05-28 23:37:00,72.0,63.3,30.21,South,173,12.6,17.3,74,0.00,CLR,OVC,0.00,WeatherDisplay:10.37,2013-05-29 03:37:00,
2013-05-28 23:39:00,72.0,63.3,30.21,South,188,12.0,13.8,74,0.00,CLR,OVC,0.00,WeatherDisplay:10.37,2013-05-29 03:39:00,
2013-05-28 23:40:00,71.8,63.4,30.21,South,172,13.3,16.0,75,0.00,CLR,OVC,0.00,WeatherDisplay:10.37,2013-05-29 03:40:00,
2013-05-28 23:41:00,71.8,63.4,30.21,SSW,206,12.2,19.6,75,0.00,CLR,OVC,0.00,WeatherDisplay:10.37,2013-05-29 03:41:00,
2013-05-28 23:44:00,71.8,63.4,30.21,South,190,8.9,15.0,75,0.00,CLR,OVC,0.00,WeatherDisplay:10.37,2013-05-29 03:44:00,
2013-05-28 23:46:00,71.8,63.4,30.21,South,190,10.0,12.7,75,0.00,CLR,OVC,0.00,WeatherDisplay:10.37,2013-05-29 03:46:00,
2013-05-28 23:47:00,71.8,63.4,30.21,South,175,13.2,16.1,75,0.00,CLR,OVC,0.00,WeatherDisplay:10.37,2013-05-29 03:47:00,
2013-05-28 23:48:00,71.8,63.4,30.21,SSW,192,13.7,15.0,75,0.00,CLR,OVC,0.00,WeatherDisplay:10.37,2013-05-29 03:48:00,
2013-05-28 23:51:00,71.6,63.3,30.21,SSW,196,12.8,13.8,75,0.00,CLR,OVC,0.00,WeatherDisplay:10.37,2013-05-29 03:51:00,
2013-05-28 23:52:00,71.6,63.3,30.21,South,191,11.8,15.0,75,0.00,CLR,OVC,0.00,WeatherDisplay:10.37,2013-05-29 03:52:00,
2013-05-28 23:53:00,71.6,63.3,30.21,South,182,12.5,16.0,75,0.00,CLR,OVC,0.00,WeatherDisplay:10.37,2013-05-29 03:53:00,
2013-05-28 23:56:00,71.5,63.2,30.21,South,179,13.1,19.6,75,0.00,CLR,OVC,0.00,WeatherDisplay:10.37,2013-05-29 03:56:00,
2013-05-28 23:57:00,71.6,63.3,30.21,South,184,12.0,19.6,75,0.00,CLR,OVC,0.00,WeatherDisplay:10.37,2013-05-29 03:57:00,
2013-05-28 23:58:00,71.5,63.2,30.21,SSW,195,11.3,15.0,75,0.00,CLR,OVC,0.00,WeatherDisplay:10.37,2013-05-29 03:58:00,